HFM85 KMCO-LFPG

Flight info

Callsign HFM85
Flight time 8h 53m
Altitude 32000
Route JEEMY4 PAINN SHRKS BERTT GURGE RAYVO Q87 NOWAE FAK BOOYA Q34 RBV Q22 LLUND BIZEX Q133 CAM BEEHS JIGZY TAFFY N693A NEEKO 5350N 5440N 5430N 5420N DOGAL BEXET MORAG NUCHU L18 MID Y803 SFD UM605 BIBAX
Aircraft A343/H-SDE2E3FGHIJ4J5M1RWXY/LB1D1

Departure

Time 2026-04-25 12:34
Airport Orlando International Airport (KMCO)

Arrival

Time 2026-04-25 21:28
Airport Charles de Gaulle International Airport (LFPG)
Time Latitude Longitude Altitude Speed Heading
2026-04-25 11:33 28.42689 -81.31545 107 ft 0 kts 124°
2026-04-25 12:12 28.42691 -81.31548 89 ft 3 kts 123°
2026-04-25 12:13 28.42704 -81.31574 106 ft 4 kts 114°
2026-04-25 12:13 28.42714 -81.31603 105 ft 4 kts 104°
2026-04-25 12:13 28.42720 -81.31632 104 ft 4 kts 104°
2026-04-25 12:13 28.42729 -81.31656 105 ft 4 kts 158°
2026-04-25 12:14 28.42736 -81.31659 105 ft 0 kts 168°
2026-04-25 12:19 28.42717 -81.31683 108 ft 5 kts 243°
2026-04-25 12:19 28.42711 -81.31736 107 ft 5 kts 266°
2026-04-25 12:19 28.42711 -81.31747 108 ft 0 kts 267°
2026-04-25 12:20 28.42710 -81.31753 108 ft 2 kts 267°
2026-04-25 12:20 28.42710 -81.31763 108 ft 0 kts 268°
2026-04-25 12:22 28.42710 -81.31764 108 ft 1 kts 268°
2026-04-25 12:22 28.42709 -81.31801 109 ft 7 kts 268°
2026-04-25 12:22 28.42708 -81.31849 111 ft 5 kts 269°
2026-04-25 12:22 28.42708 -81.31880 111 ft 3 kts 270°
2026-04-25 12:23 28.42708 -81.31899 111 ft 2 kts 270°
2026-04-25 12:23 28.42708 -81.31910 111 ft 1 kts 270°
2026-04-25 12:23 28.42708 -81.31912 112 ft 0 kts 270°
2026-04-25 12:24 28.42708 -81.31929 112 ft 6 kts 270°
2026-04-25 12:24 28.42731 -81.31982 110 ft 9 kts 321°
2026-04-25 12:25 28.42815 -81.31991 108 ft 15 kts 360°
2026-04-25 12:25 28.42941 -81.31992 106 ft 20 kts 359°
2026-04-25 12:25 28.43081 -81.31994 106 ft 20 kts 359°
2026-04-25 12:25 28.43219 -81.31995 105 ft 19 kts 359°
2026-04-25 12:26 28.43352 -81.31997 106 ft 18 kts 359°
2026-04-25 12:26 28.43473 -81.31999 107 ft 16 kts 359°
2026-04-25 12:26 28.43577 -81.31999 109 ft 14 kts 360°
2026-04-25 12:26 28.43667 -81.31999 110 ft 12 kts
2026-04-25 12:27 28.43746 -81.32000 110 ft 11 kts 360°
2026-04-25 12:27 28.43813 -81.32000 110 ft 9 kts 359°
2026-04-25 12:27 28.43873 -81.32002 113 ft 9 kts 359°
2026-04-25 12:27 28.43931 -81.32005 111 ft 8 kts 355°
2026-04-25 12:28 28.43984 -81.32008 112 ft 9 kts
2026-04-25 12:28 28.44056 -81.32005 112 ft 13 kts
2026-04-25 12:28 28.44148 -81.32005 112 ft 13 kts 359°
2026-04-25 12:28 28.44246 -81.32007 109 ft 17 kts 359°
2026-04-25 12:29 28.44384 -81.32008 110 ft 21 kts 360°
2026-04-25 12:29 28.44529 -81.32010 107 ft 21 kts 359°
2026-04-25 12:29 28.44660 -81.32011 105 ft 15 kts 359°
2026-04-25 12:29 28.44704 -81.32032 106 ft 4 kts 309°
2026-04-25 12:30 28.44712 -81.32061 106 ft 5 kts 279°
2026-04-25 12:30 28.44715 -81.32097 106 ft 4 kts 271°
2026-04-25 12:30 28.44714 -81.32113 106 ft 0 kts 269°
2026-04-25 12:32 28.44714 -81.32136 106 ft 7 kts 269°
2026-04-25 12:32 28.44709 -81.32208 107 ft 7 kts 246°
2026-04-25 12:32 28.44680 -81.32226 107 ft 4 kts 197°
2026-04-25 12:32 28.44653 -81.32228 107 ft 4 kts 183°
2026-04-25 12:33 28.44592 -81.32228 108 ft 24 kts 179°
2026-04-25 12:33 28.44230 -81.32223 113 ft 78 kts 179°
2026-04-25 12:33 28.43519 -81.32216 107 ft 126 kts 179°
2026-04-25 12:33 28.42507 -81.32208 117 ft 163 kts 180°
2026-04-25 12:34 28.41340 -81.32223 483 ft 170 kts 181°
2026-04-25 12:34 28.40157 -81.32283 1043 ft 170 kts 184°
2026-04-25 12:34 28.38960 -81.32504 1382 ft 184 kts 198°
2026-04-25 12:34 28.38160 -81.32907 1495 ft 197 kts 211°
2026-04-25 12:35 28.36543 -81.34166 1723 ft 228 kts 210°
2026-04-25 12:35 28.35152 -81.35157 2130 ft 243 kts 219°
2026-04-25 12:35 28.34116 -81.36703 2663 ft 254 kts 248°
2026-04-25 12:35 28.33695 -81.38667 3320 ft 260 kts 261°
2026-04-25 12:36 28.33057 -81.40509 3996 ft 257 kts 245°
2026-04-25 12:36 28.32538 -81.42491 4524 ft 266 kts 260°
2026-04-25 12:36 28.32267 -81.44572 5222 ft 268 kts 263°
2026-04-25 12:36 28.32029 -81.46678 5911 ft 271 kts 263°
2026-04-25 12:37 28.31802 -81.48815 6544 ft 275 kts 266°
2026-04-25 12:37 28.32016 -81.50957 6896 ft 274 kts 291°
2026-04-25 12:37 28.33019 -81.52764 7067 ft 271 kts 315°
2026-04-25 12:37 28.34459 -81.54166 7356 ft 275 kts 322°
2026-04-25 12:38 28.35994 -81.55479 7969 ft 277 kts 323°
2026-04-25 12:38 28.37544 -81.56779 8683 ft 277 kts 323°
2026-04-25 12:38 28.39246 -81.57795 9345 ft 279 kts 343°
2026-04-25 12:38 28.41168 -81.58194 10014 ft 282 kts 352°
2026-04-25 12:39 28.43147 -81.58420 10402 ft 293 kts 353°
2026-04-25 12:39 28.45231 -81.58581 10656 ft 308 kts 359°
2026-04-25 12:39 28.47398 -81.58255 10920 ft 323 kts 12°
2026-04-25 12:39 28.49613 -81.57567 11193 ft 336 kts 14°
2026-04-25 12:40 28.51898 -81.56784 11458 ft 349 kts 15°
2026-04-25 12:40 28.54262 -81.55954 11716 ft 361 kts 15°
2026-04-25 12:40 28.56691 -81.55094 12046 ft 370 kts 15°
2026-04-25 12:40 28.59169 -81.54212 12510 ft 375 kts 15°
2026-04-25 12:41 28.61674 -81.53318 13033 ft 379 kts 15°
2026-04-25 12:41 28.64194 -81.52418 13535 ft 382 kts 15°
2026-04-25 12:41 28.66737 -81.51511 14035 ft 384 kts 15°
2026-04-25 12:41 28.69305 -81.50594 14472 ft 388 kts 15°
2026-04-25 12:42 28.71893 -81.49670 14900 ft 392 kts 15°
2026-04-25 12:42 28.72740 -81.49367 15051 ft 393 kts 15°
2026-04-25 12:42 28.77146 -81.47790 15835 ft 399 kts 15°
2026-04-25 12:42 28.79809 -81.46837 16287 ft 402 kts 15°
2026-04-25 12:43 28.82452 -81.45889 16743 ft 405 kts 15°
2026-04-25 12:43 28.85147 -81.44923 17203 ft 408 kts 15°
2026-04-25 12:43 28.90613 -81.42963 18119 ft 415 kts 15°
2026-04-25 12:44 28.93386 -81.41993 18530 ft 417 kts 12°
2026-04-25 12:44 28.96244 -81.41501 18933 ft 416 kts 358°
2026-04-25 12:44 29.02011 -81.42002 19808 ft 418 kts 352°
2026-04-25 12:45 29.04910 -81.42337 20228 ft 420 kts 352°
2026-04-25 12:45 29.07828 -81.42670 20623 ft 422 kts 352°
2026-04-25 12:45 29.13707 -81.43299 21427 ft 427 kts 353°
2026-04-25 12:46 29.16674 -81.43571 21818 ft 429 kts 353°
2026-04-25 12:46 29.19651 -81.43845 22215 ft 431 kts 353°
2026-04-25 12:46 29.22648 -81.44125 22600 ft 433 kts 353°
2026-04-25 12:46 29.25661 -81.44409 22980 ft 435 kts 353°
2026-04-25 12:47 29.28689 -81.44696 23332 ft 438 kts 353°
2026-04-25 12:47 29.31733 -81.44985 23636 ft 441 kts 353°
2026-04-25 12:47 29.34798 -81.45276 23941 ft 443 kts 353°
2026-04-25 12:47 29.37880 -81.45569 24248 ft 445 kts 353°
2026-04-25 12:48 29.39920 -81.45763 24445 ft 446 kts 353°
2026-04-25 12:48 29.43018 -81.46059 24745 ft 448 kts 354°
2026-04-25 12:48 29.46124 -81.46355 25040 ft 449 kts 354°
2026-04-25 12:48 29.49247 -81.46653 25326 ft 451 kts 354°
2026-04-25 12:49 29.52382 -81.46953 25611 ft 453 kts 354°
2026-04-25 12:49 29.55521 -81.47253 25896 ft 454 kts 354°
2026-04-25 12:49 29.58681 -81.47557 26143 ft 457 kts 354°
2026-04-25 12:49 29.61855 -81.47854 26411 ft 458 kts 354°
2026-04-25 12:50 29.65041 -81.48138 26692 ft 460 kts 355°
2026-04-25 12:50 29.68229 -81.48422 26956 ft 461 kts 355°
2026-04-25 12:50 29.71434 -81.48710 27229 ft 462 kts 355°
2026-04-25 12:50 29.74649 -81.49001 27491 ft 464 kts 355°
2026-04-25 12:51 29.77874 -81.49293 27742 ft 465 kts 355°
2026-04-25 12:51 29.81101 -81.49586 27999 ft 467 kts 355°
2026-04-25 12:51 29.84344 -81.49881 28251 ft 468 kts 355°
2026-04-25 12:51 29.87592 -81.50222 28452 ft 470 kts 352°
2026-04-25 12:52 29.90787 -81.50971 28893 ft 466 kts 345°
2026-04-25 12:52 29.93901 -81.51970 29378 ft 463 kts 344°
2026-04-25 12:52 29.96971 -81.53043 29830 ft 459 kts 343°
2026-04-25 12:52 30.00006 -81.54145 30184 ft 457 kts 343°
2026-04-25 12:53 30.02995 -81.55241 30446 ft 456 kts 343°
2026-04-25 12:53 30.06021 -81.56349 30708 ft 456 kts 343°
2026-04-25 12:53 30.09040 -81.57446 30917 ft 456 kts 343°
2026-04-25 12:53 30.12080 -81.58544 30977 ft 458 kts 343°
2026-04-25 12:54 30.18196 -81.60741 30981 ft 456 kts 343°
2026-04-25 12:54 30.24208 -81.62897 30983 ft 456 kts 343°
2026-04-25 12:55 30.29282 -81.64719 30985 ft 456 kts 343°
2026-04-25 12:55 30.36325 -81.67253 30963 ft 457 kts 343°
2026-04-25 12:56 30.42396 -81.69441 30962 ft 457 kts 343°
2026-04-25 12:56 30.48496 -81.71641 30962 ft 461 kts 343°
2026-04-25 12:57 30.54630 -81.73858 30962 ft 462 kts 343°
2026-04-25 12:57 30.60815 -81.75827 30963 ft 461 kts 351°
2026-04-25 12:58 30.67192 -81.76022 30965 ft 460 kts
2026-04-25 12:58 30.73561 -81.75322 30966 ft 460 kts
2026-04-25 12:59 30.79928 -81.74488 30967 ft 460 kts
2026-04-25 12:59 30.86287 -81.73661 30969 ft 460 kts
2026-04-25 13:00 30.91574 -81.72991 30971 ft 460 kts
2026-04-25 13:00 30.99019 -81.72058 30973 ft 460 kts
2026-04-25 13:01 31.05379 -81.71261 30969 ft 459 kts
2026-04-25 13:01 31.11732 -81.70463 30968 ft 459 kts
2026-04-25 13:02 31.18024 -81.69268 30968 ft 459 kts 15°
2026-04-25 13:02 31.24166 -81.67175 30966 ft 460 kts 17°
2026-04-25 13:03 31.30275 -81.64934 30970 ft 460 kts 17°
2026-04-25 13:03 31.36365 -81.62680 30970 ft 458 kts 17°
2026-04-25 13:04 31.42403 -81.60459 30974 ft 458 kts 17°
2026-04-25 13:04 31.48480 -81.58230 30973 ft 458 kts 17°
2026-04-25 13:05 31.54604 -81.55983 30963 ft 458 kts 17°
2026-04-25 13:05 31.60699 -81.53743 30961 ft 459 kts 17°
2026-04-25 13:06 31.66787 -81.51502 30953 ft 459 kts 17°
2026-04-25 13:06 31.72839 -81.49272 30949 ft 459 kts 17°
2026-04-25 13:07 31.78927 -81.47024 30947 ft 459 kts 17°
2026-04-25 13:07 31.85020 -81.44772 30944 ft 459 kts 17°
2026-04-25 13:08 31.91119 -81.42515 30945 ft 460 kts 17°
2026-04-25 13:08 31.97220 -81.40253 30946 ft 460 kts 17°
2026-04-25 13:09 32.03320 -81.37989 30952 ft 460 kts 17°
2026-04-25 13:09 32.09419 -81.35722 30952 ft 459 kts 17°
2026-04-25 13:10 32.15512 -81.33454 30952 ft 459 kts 17°
2026-04-25 13:10 32.21603 -81.31184 30952 ft 459 kts 17°
2026-04-25 13:11 32.27701 -81.28907 30951 ft 459 kts 17°
2026-04-25 13:11 32.33789 -81.26632 30951 ft 458 kts 17°
2026-04-25 13:12 32.39854 -81.24361 30944 ft 457 kts 17°
2026-04-25 13:12 32.44892 -81.22447 30943 ft 457 kts 19°
2026-04-25 13:13 32.51392 -81.18200 30943 ft 460 kts 35°
2026-04-25 13:13 32.56419 -81.13493 30937 ft 461 kts 38°
2026-04-25 13:14 32.61362 -81.08646 30939 ft 462 kts 38°
2026-04-25 13:14 32.66287 -81.03807 30938 ft 462 kts 38°
2026-04-25 13:15 32.71250 -80.98957 30939 ft 462 kts 38°
2026-04-25 13:15 32.76222 -80.94109 30942 ft 462 kts 38°
2026-04-25 13:16 32.81187 -80.89261 30934 ft 462 kts 38°
2026-04-25 13:16 32.86148 -80.84408 30953 ft 461 kts 38°
2026-04-25 13:17 32.91109 -80.79547 30955 ft 462 kts 38°
2026-04-25 13:17 32.96066 -80.74682 30942 ft 462 kts 38°
2026-04-25 13:18 33.01022 -80.69810 30955 ft 462 kts 38°
2026-04-25 13:18 33.05976 -80.64934 30926 ft 462 kts 38°
2026-04-25 13:19 33.10927 -80.60052 30937 ft 462 kts 38°
2026-04-25 13:19 33.14205 -80.56816 30941 ft 462 kts 38°
2026-04-25 13:20 33.20828 -80.50269 30929 ft 462 kts 38°
2026-04-25 13:20 33.25785 -80.45364 30931 ft 463 kts 38°
2026-04-25 13:21 33.30735 -80.40455 30935 ft 462 kts 38°
2026-04-25 13:21 33.35687 -80.35536 30944 ft 463 kts 38°
2026-04-25 13:22 33.40612 -80.30636 30933 ft 463 kts 38°
2026-04-25 13:23 33.48080 -80.23192 30934 ft 463 kts 38°
2026-04-25 13:23 33.52998 -80.18280 30938 ft 463 kts 38°
2026-04-25 13:24 33.57951 -80.13325 30936 ft 465 kts 39°
2026-04-25 13:24 33.62934 -80.08370 30930 ft 466 kts 36°
2026-04-25 13:25 33.68457 -80.04341 30932 ft 464 kts 27°
2026-04-25 13:25 33.74203 -80.00782 30931 ft 465 kts 26°
2026-04-25 13:26 33.79983 -79.97295 30921 ft 465 kts 26°
2026-04-25 13:26 33.85758 -79.93798 30921 ft 465 kts 26°
2026-04-25 13:27 33.91537 -79.90276 30919 ft 466 kts 26°
2026-04-25 13:27 33.97318 -79.86741 30924 ft 466 kts 26°
2026-04-25 13:28 34.03096 -79.83200 30923 ft 466 kts 26°
2026-04-25 13:28 34.08870 -79.79658 30925 ft 466 kts 26°
2026-04-25 13:29 34.14665 -79.76097 30921 ft 468 kts 26°
2026-04-25 13:29 34.20480 -79.72522 30926 ft 469 kts 26°
2026-04-25 13:30 34.29189 -79.67152 30926 ft 469 kts 26°
2026-04-25 13:31 34.37899 -79.61772 30926 ft 469 kts 26°
2026-04-25 13:31 34.43676 -79.58207 30918 ft 469 kts 26°
2026-04-25 13:32 34.49519 -79.54578 30920 ft 469 kts 26°
2026-04-25 13:32 34.55330 -79.50964 30918 ft 469 kts 26°
2026-04-25 13:33 34.61083 -79.47214 30920 ft 469 kts 28°
2026-04-25 13:33 34.66724 -79.43347 30922 ft 469 kts 28°
2026-04-25 13:34 34.72420 -79.39463 30928 ft 470 kts 28°
2026-04-25 13:34 34.78138 -79.35584 30927 ft 470 kts 28°
2026-04-25 13:35 34.83851 -79.31707 30925 ft 471 kts 28°
2026-04-25 13:35 34.89575 -79.27822 30921 ft 471 kts 28°
2026-04-25 13:36 34.95295 -79.23933 30916 ft 471 kts 28°
2026-04-25 13:36 35.00978 -79.20063 30901 ft 471 kts 28°
2026-04-25 13:37 35.06370 -79.16385 30897 ft 471 kts 28°
2026-04-25 13:37 35.12167 -79.12426 30897 ft 472 kts 28°
2026-04-25 13:38 35.17893 -79.08509 30907 ft 472 kts 28°
2026-04-25 13:38 35.22652 -79.05247 30910 ft 472 kts 28°
2026-04-25 13:39 35.27979 -79.01591 30908 ft 473 kts 28°
2026-04-25 13:39 35.33724 -78.97643 30902 ft 474 kts 28°
2026-04-25 13:40 35.39469 -78.93690 30903 ft 474 kts 28°
2026-04-25 13:40 35.45211 -78.89737 30905 ft 473 kts 28°
2026-04-25 13:41 35.50917 -78.85798 30906 ft 474 kts 28°
2026-04-25 13:41 35.56654 -78.81824 30903 ft 474 kts 28°
2026-04-25 13:42 35.62398 -78.77840 30902 ft 474 kts 28°
2026-04-25 13:42 35.68138 -78.73852 30902 ft 474 kts 28°
2026-04-25 13:43 35.73881 -78.69860 30891 ft 474 kts 27°
2026-04-25 13:43 35.79602 -78.65878 30890 ft 476 kts 28°
2026-04-25 13:44 35.85356 -78.61864 30889 ft 475 kts 28°
2026-04-25 13:44 35.91107 -78.57846 30902 ft 475 kts 28°
2026-04-25 13:45 35.96859 -78.53819 30909 ft 476 kts 27°
2026-04-25 13:45 36.02628 -78.49773 30910 ft 477 kts 27°
2026-04-25 13:46 36.08359 -78.45749 30912 ft 477 kts 27°
2026-04-25 13:46 36.14136 -78.41684 30910 ft 477 kts 27°
2026-04-25 13:47 36.19907 -78.37617 30906 ft 478 kts 27°
2026-04-25 13:47 36.25695 -78.33532 30890 ft 480 kts 27°
2026-04-25 13:48 36.31497 -78.29429 30887 ft 480 kts 27°
2026-04-25 13:48 36.37319 -78.25502 30883 ft 478 kts 20°
2026-04-25 13:49 36.43580 -78.22856 30883 ft 475 kts 14°
2026-04-25 13:49 36.49932 -78.20535 30877 ft 476 kts 13°
2026-04-25 13:50 36.56296 -78.18264 30923 ft 476 kts 13°
2026-04-25 13:50 36.62657 -78.15976 30939 ft 476 kts 13°
2026-04-25 13:51 36.69023 -78.13667 30943 ft 477 kts 13°
2026-04-25 13:51 36.75402 -78.11345 30945 ft 478 kts 13°
2026-04-25 13:52 36.81734 -78.09035 30933 ft 478 kts 13°
2026-04-25 13:52 36.88114 -78.06705 30919 ft 478 kts 13°
2026-04-25 13:53 36.94505 -78.04366 30885 ft 479 kts 13°
2026-04-25 13:53 37.00900 -78.02023 30888 ft 479 kts 13°
2026-04-25 13:54 37.07300 -77.99673 30886 ft 479 kts 13°
2026-04-25 13:54 37.13693 -77.97322 30891 ft 479 kts 13°
2026-04-25 13:55 37.20056 -77.94978 30885 ft 480 kts 13°
2026-04-25 13:55 37.26456 -77.92615 30882 ft 479 kts 13°
2026-04-25 13:56 37.32850 -77.90251 30876 ft 479 kts 13°
2026-04-25 13:56 37.39249 -77.87882 30877 ft 480 kts 12°
2026-04-25 13:57 37.45660 -77.85503 30878 ft 480 kts 12°
2026-04-25 13:57 37.52014 -77.83104 30888 ft 482 kts 15°
2026-04-25 13:58 37.58268 -77.80011 30899 ft 483 kts 18°
2026-04-25 13:58 37.64486 -77.76759 30903 ft 484 kts 18°
2026-04-25 13:59 37.70694 -77.73475 30917 ft 484 kts 18°
2026-04-25 13:59 37.76908 -77.70191 30918 ft 484 kts 18°
2026-04-25 14:00 37.82076 -77.67461 30916 ft 484 kts 18°
2026-04-25 14:00 37.89299 -77.63642 30929 ft 484 kts 18°
2026-04-25 14:01 37.95513 -77.60351 30921 ft 484 kts 18°
2026-04-25 14:01 38.01721 -77.57056 30926 ft 483 kts 18°
2026-04-25 14:02 38.07925 -77.53756 30934 ft 483 kts 18°
2026-04-25 14:02 38.14113 -77.50461 30941 ft 483 kts 18°
2026-04-25 14:03 38.20312 -77.47153 30944 ft 483 kts 18°
2026-04-25 14:03 38.26461 -77.43865 30944 ft 483 kts 18°
2026-04-25 14:04 38.32656 -77.40547 30943 ft 483 kts 18°
2026-04-25 14:04 38.38754 -77.36932 30943 ft 488 kts 27°
2026-04-25 14:05 38.44011 -77.31347 30973 ft 497 kts 42°
2026-04-25 14:05 38.48684 -77.24801 30966 ft 500 kts 45°
2026-04-25 14:06 38.53228 -77.18156 30957 ft 500 kts 45°
2026-04-25 14:06 38.57800 -77.11475 30948 ft 499 kts 45°
2026-04-25 14:07 38.62380 -77.04819 30945 ft 499 kts 45°
2026-04-25 14:07 38.66970 -76.98156 30943 ft 499 kts 44°
2026-04-25 14:08 38.71562 -76.91478 30959 ft 500 kts 44°
2026-04-25 14:08 38.76149 -76.84790 30971 ft 500 kts 44°
2026-04-25 14:09 38.80701 -76.78148 30974 ft 498 kts 44°
2026-04-25 14:09 38.85262 -76.71462 30958 ft 498 kts 44°
2026-04-25 14:10 38.89829 -76.64755 30972 ft 499 kts 44°
2026-04-25 14:10 38.94397 -76.58035 30995 ft 499 kts 44°
2026-04-25 14:11 38.98929 -76.51356 30991 ft 499 kts 44°
2026-04-25 14:11 39.03487 -76.44621 30976 ft 499 kts 44°
2026-04-25 14:12 39.08043 -76.37879 30975 ft 500 kts 44°
2026-04-25 14:12 39.12606 -76.31111 30998 ft 500 kts 44°
2026-04-25 14:13 39.17160 -76.24340 31002 ft 500 kts 44°
2026-04-25 14:13 39.21714 -76.17554 31008 ft 500 kts 44°
2026-04-25 14:14 39.26269 -76.10751 30999 ft 501 kts 44°
2026-04-25 14:14 39.30780 -76.04010 30998 ft 500 kts 44°
2026-04-25 14:15 39.35318 -75.97203 30996 ft 500 kts 44°
2026-04-25 14:15 39.39854 -75.90385 31016 ft 500 kts 44°
2026-04-25 14:16 39.44387 -75.83559 31014 ft 501 kts 44°
2026-04-25 14:16 39.48927 -75.76706 31020 ft 501 kts 44°
2026-04-25 14:17 39.53152 -75.70313 31031 ft 500 kts 44°
2026-04-25 14:17 39.57648 -75.63500 31043 ft 500 kts 44°
2026-04-25 14:18 39.62167 -75.56637 31044 ft 501 kts 44°
2026-04-25 14:18 39.66679 -75.49766 31042 ft 501 kts 44°
2026-04-25 14:19 39.70896 -75.42511 31048 ft 505 kts 49°
2026-04-25 14:19 39.74932 -75.35051 31057 ft 504 kts 49°
2026-04-25 14:20 39.78974 -75.27675 31064 ft 504 kts 49°
2026-04-25 14:20 39.83079 -75.20300 31064 ft 503 kts 48°
2026-04-25 14:21 39.87200 -75.12923 31065 ft 504 kts 48°
2026-04-25 14:21 39.91312 -75.05545 31068 ft 504 kts 48°
2026-04-25 14:22 39.95418 -74.98155 31060 ft 503 kts 48°
2026-04-25 14:22 39.99445 -74.90768 31064 ft 504 kts 50°
2026-04-25 14:23 40.03310 -74.83124 31060 ft 505 kts 51°
2026-04-25 14:23 40.07148 -74.75440 31066 ft 505 kts 51°
2026-04-25 14:24 40.11009 -74.67778 31082 ft 505 kts 50°
2026-04-25 14:24 40.14883 -74.60128 31071 ft 505 kts 50°
2026-04-25 14:25 40.18785 -74.52484 31069 ft 503 kts 47°
2026-04-25 14:25 40.23512 -74.46066 31078 ft 489 kts 34°
2026-04-25 14:26 40.28720 -74.40365 31097 ft 488 kts 32°
2026-04-25 14:26 40.33996 -74.34772 31105 ft 488 kts 32°
2026-04-25 14:27 40.39261 -74.29171 31104 ft 487 kts 32°
2026-04-25 14:27 40.44507 -74.23548 31111 ft 487 kts 32°
2026-04-25 14:28 40.49709 -74.17949 31112 ft 487 kts 32°
2026-04-25 14:28 40.54949 -74.12296 31113 ft 488 kts 32°
2026-04-25 14:29 40.60199 -74.06629 31114 ft 488 kts 32°
2026-04-25 14:29 40.65434 -74.00952 31140 ft 488 kts 32°
2026-04-25 14:30 40.70672 -73.95258 31134 ft 487 kts 31°
2026-04-25 14:30 40.78465 -73.86774 31108 ft 487 kts 31°
2026-04-25 14:31 40.83694 -73.81108 31104 ft 484 kts 29°
2026-04-25 14:31 40.86475 -73.78685 31117 ft 473 kts 20°
2026-04-25 14:31 40.89417 -73.76862 31109 ft 463 kts 14°
2026-04-25 14:32 40.95408 -73.73820 31109 ft 461 kts 12°
2026-04-25 14:32 41.01404 -73.70984 31110 ft 460 kts 11°
2026-04-25 14:33 41.07435 -73.68138 31114 ft 459 kts 12°
2026-04-25 14:33 41.13436 -73.65275 31108 ft 458 kts 12°
2026-04-25 14:34 41.16425 -73.63841 31275 ft 456 kts 12°
2026-04-25 14:34 41.19407 -73.62407 31523 ft 456 kts 12°
2026-04-25 14:34 41.22398 -73.60967 31720 ft 457 kts 12°
2026-04-25 14:34 41.25389 -73.59532 31990 ft 456 kts 11°
2026-04-25 14:35 41.28413 -73.58372 32203 ft 449 kts
2026-04-25 14:35 41.31476 -73.57707 32357 ft 446 kts
2026-04-25 14:35 41.34556 -73.57203 32528 ft 446 kts 359°
2026-04-25 14:35 41.37642 -73.56761 32694 ft 446 kts 358°
2026-04-25 14:36 41.40740 -73.56350 32871 ft 447 kts 358°
2026-04-25 14:36 41.43837 -73.55948 33050 ft 448 kts 358°
2026-04-25 14:36 41.46948 -73.55544 33226 ft 449 kts 358°
2026-04-25 14:36 41.50018 -73.55140 33347 ft 450 kts 358°
2026-04-25 14:37 41.53138 -73.54725 33495 ft 451 kts 358°
2026-04-25 14:37 41.56265 -73.54304 33639 ft 452 kts 358°
2026-04-25 14:37 41.59404 -73.53878 33783 ft 454 kts 358°
2026-04-25 14:37 41.62541 -73.53451 33895 ft 454 kts 358°
2026-04-25 14:38 41.68831 -73.52591 33922 ft 454 kts 358°
2026-04-25 14:38 41.75123 -73.51728 33921 ft 455 kts 358°
2026-04-25 14:39 41.81371 -73.50872 33940 ft 455 kts 358°
2026-04-25 14:39 41.87664 -73.50010 33965 ft 454 kts 358°
2026-04-25 14:40 41.89780 -73.49719 34148 ft 451 kts 358°
2026-04-25 14:40 41.93865 -73.49150 34810 ft 441 kts 359°
2026-04-25 14:40 41.96910 -73.48725 35049 ft 439 kts 359°
2026-04-25 14:40 41.99942 -73.48307 35082 ft 437 kts 359°
2026-04-25 14:41 42.05976 -73.47481 35088 ft 435 kts 359°
2026-04-25 14:41 42.12006 -73.46657 35079 ft 435 kts 359°
2026-04-25 14:42 42.15994 -73.46107 35072 ft 436 kts 359°
2026-04-25 14:42 42.24022 -73.44998 35082 ft 436 kts 359°
2026-04-25 14:43 42.30052 -73.44159 35077 ft 436 kts 359°
2026-04-25 14:43 42.36088 -73.43317 35081 ft 436 kts 359°
2026-04-25 14:44 42.42080 -73.42482 35102 ft 436 kts 359°
2026-04-25 14:44 42.48121 -73.41635 35079 ft 436 kts 358°
2026-04-25 14:45 42.54157 -73.40790 35080 ft 436 kts 358°
2026-04-25 14:45 42.60203 -73.39943 35078 ft 436 kts 359°
2026-04-25 14:46 42.66244 -73.39094 35097 ft 436 kts 358°
2026-04-25 14:46 42.72243 -73.38252 35098 ft 437 kts 358°
2026-04-25 14:47 42.76289 -73.37682 35099 ft 437 kts 358°
2026-04-25 14:47 42.84332 -73.36544 35098 ft 437 kts 358°
2026-04-25 14:48 42.90383 -73.35688 35092 ft 437 kts 358°
2026-04-25 14:48 42.96438 -73.34829 35091 ft 437 kts 358°
2026-04-25 14:49 43.02490 -73.34002 35096 ft 436 kts 357°
2026-04-25 14:49 43.08502 -73.33388 35091 ft 436 kts 356°
2026-04-25 14:50 43.14549 -73.32811 35091 ft 436 kts 356°
2026-04-25 14:50 43.20601 -73.32202 35110 ft 436 kts 356°
2026-04-25 14:51 43.26659 -73.31573 35104 ft 437 kts 356°
2026-04-25 14:51 43.32721 -73.30935 35105 ft 437 kts 356°
2026-04-25 14:52 43.38741 -73.30307 35120 ft 437 kts 356°
2026-04-25 14:52 43.43814 -73.29776 35106 ft 436 kts 356°
2026-04-25 14:53 43.50799 -73.29035 35106 ft 432 kts 356°
2026-04-25 14:53 43.56789 -73.28403 35105 ft 432 kts 356°
2026-04-25 14:54 43.62782 -73.27772 35103 ft 432 kts 356°
2026-04-25 14:54 43.68732 -73.27147 35107 ft 432 kts 356°
2026-04-25 14:55 43.74727 -73.26509 35103 ft 432 kts 356°
2026-04-25 14:55 43.80718 -73.25871 35106 ft 432 kts 356°
2026-04-25 14:56 43.86708 -73.25234 35099 ft 433 kts 356°
2026-04-25 14:56 43.92746 -73.24595 35110 ft 437 kts 356°
2026-04-25 14:57 43.98749 -73.23053 35107 ft 451 kts 11°
2026-04-25 14:57 44.04348 -73.18785 35104 ft 473 kts 31°
2026-04-25 14:58 44.06728 -73.15547 35104 ft 486 kts 42°
2026-04-25 14:58 44.08797 -73.11798 35105 ft 492 kts 46°
2026-04-25 14:58 44.12705 -73.03946 35120 ft 493 kts 47°
2026-04-25 14:59 44.16511 -72.96060 35130 ft 489 kts 47°
2026-04-25 14:59 44.20301 -72.88295 35137 ft 488 kts 47°
2026-04-25 15:00 44.24142 -72.80486 35143 ft 488 kts 47°
2026-04-25 15:00 44.27986 -72.72668 35157 ft 488 kts 47°
2026-04-25 15:01 44.31806 -72.64869 35145 ft 486 kts 47°
2026-04-25 15:01 44.35592 -72.57120 35135 ft 486 kts 47°
2026-04-25 15:02 44.39395 -72.49315 35121 ft 485 kts 46°
2026-04-25 15:02 44.43172 -72.41534 35135 ft 482 kts 46°
2026-04-25 15:03 44.46923 -72.33786 35134 ft 480 kts 46°
2026-04-25 15:03 44.50668 -72.26042 35130 ft 480 kts 46°
2026-04-25 15:04 44.54407 -72.18286 35135 ft 480 kts 47°
2026-04-25 15:04 44.58119 -72.10564 35146 ft 480 kts 46°
2026-04-25 15:05 44.61834 -72.02811 35138 ft 479 kts 47°
2026-04-25 15:06 44.67395 -71.91173 35137 ft 478 kts 46°
2026-04-25 15:06 44.71092 -71.83406 35158 ft 478 kts 46°
2026-04-25 15:07 44.74776 -71.75645 35139 ft 477 kts 46°
2026-04-25 15:07 44.78435 -71.67921 35143 ft 477 kts 46°
2026-04-25 15:08 44.82112 -71.60138 35142 ft 478 kts 46°
2026-04-25 15:08 44.85784 -71.52339 35180 ft 478 kts 46°
2026-04-25 15:09 44.89448 -71.44535 35145 ft 477 kts 46°
2026-04-25 15:09 44.94902 -71.32882 35149 ft 476 kts 46°
2026-04-25 15:10 44.98542 -71.25080 35150 ft 476 kts 46°
2026-04-25 15:11 45.03998 -71.13352 35145 ft 476 kts 47°
2026-04-25 15:11 45.07633 -71.05505 35145 ft 477 kts 47°
2026-04-25 15:12 45.11455 -70.98021 35145 ft 466 kts 39°
2026-04-25 15:12 45.13602 -70.94591 35145 ft 464 kts 38°
2026-04-25 15:12 45.16516 -70.90080 35143 ft 464 kts 38°
2026-04-25 15:13 45.24556 -70.77835 35146 ft 464 kts 38°
2026-04-25 15:14 45.28917 -70.71159 35135 ft 464 kts 38°
2026-04-25 15:14 45.33305 -70.64408 35145 ft 466 kts 38°
2026-04-25 15:15 45.37716 -70.57606 35137 ft 468 kts 38°
2026-04-25 15:15 45.42120 -70.50792 35139 ft 468 kts 39°
2026-04-25 15:16 45.46526 -70.43958 35145 ft 468 kts 39°
2026-04-25 15:16 45.53106 -70.33723 35134 ft 469 kts 39°
2026-04-25 15:17 45.59712 -70.23408 35131 ft 469 kts 39°
2026-04-25 15:18 45.64110 -70.16520 35161 ft 469 kts 40°
2026-04-25 15:18 45.69971 -70.07317 35133 ft 470 kts 41°
2026-04-25 15:19 45.73626 -70.01558 35130 ft 471 kts 41°
2026-04-25 15:19 45.79479 -69.92315 35129 ft 471 kts 41°
2026-04-25 15:20 45.83874 -69.85353 35129 ft 470 kts 42°
2026-04-25 15:20 45.87519 -69.79563 35125 ft 470 kts 42°
2026-04-25 15:21 45.91901 -69.72591 35125 ft 470 kts 42°
2026-04-25 15:21 45.96984 -69.64481 35131 ft 470 kts 43°
2026-04-25 15:22 46.00645 -69.58625 35122 ft 470 kts 43°
2026-04-25 15:22 46.05017 -69.51612 35124 ft 470 kts 43°
2026-04-25 15:23 46.09349 -69.44648 35126 ft 470 kts 43°
2026-04-25 15:23 46.13708 -69.37622 35136 ft 470 kts 44°
2026-04-25 15:24 46.18057 -69.30594 35122 ft 469 kts 44°
2026-04-25 15:24 46.21667 -69.24747 35118 ft 469 kts 44°
2026-04-25 15:25 46.26743 -69.16504 35123 ft 469 kts 44°
2026-04-25 15:25 46.31045 -69.09498 35128 ft 469 kts 44°
2026-04-25 15:26 46.35369 -69.02438 35118 ft 469 kts 45°
2026-04-25 15:26 46.39689 -68.95365 35116 ft 469 kts 45°
2026-04-25 15:27 46.44002 -68.88287 35115 ft 469 kts 45°
2026-04-25 15:28 46.50430 -68.77701 35114 ft 468 kts 45°
2026-04-25 15:28 46.54726 -68.70607 35118 ft 467 kts 45°
2026-04-25 15:29 46.59013 -68.63507 35117 ft 467 kts 45°
2026-04-25 15:29 46.63298 -68.56391 35119 ft 467 kts 46°
2026-04-25 15:30 46.67561 -68.49294 35116 ft 465 kts 46°
2026-04-25 15:30 46.71790 -68.42235 35108 ft 465 kts 46°
2026-04-25 15:31 46.76040 -68.35125 35118 ft 465 kts 46°
2026-04-25 15:31 46.80294 -68.27986 35100 ft 466 kts 47°
2026-04-25 15:32 46.84542 -68.20841 35090 ft 466 kts 47°
2026-04-25 15:32 46.88791 -68.13674 35083 ft 466 kts 47°
2026-04-25 15:33 46.95120 -68.02963 35083 ft 466 kts 47°
2026-04-25 15:33 46.99335 -67.95807 35083 ft 463 kts 47°
2026-04-25 15:34 47.03536 -67.88655 35088 ft 463 kts 47°
2026-04-25 15:34 47.07022 -67.82706 35091 ft 463 kts 47°
2026-04-25 15:35 47.14011 -67.70741 35091 ft 461 kts 47°
2026-04-25 15:36 47.20226 -67.60055 35090 ft 460 kts 47°
2026-04-25 15:36 47.24384 -67.52882 35111 ft 460 kts 48°
2026-04-25 15:37 47.28527 -67.45718 35078 ft 459 kts 48°
2026-04-25 15:37 47.32656 -67.38558 35096 ft 459 kts 48°
2026-04-25 15:38 47.36776 -67.31395 35074 ft 457 kts 48°
2026-04-25 15:38 47.40820 -67.24153 35073 ft 457 kts 50°
2026-04-25 15:39 47.44746 -67.16750 35087 ft 457 kts 50°
2026-04-25 15:39 47.48624 -67.09421 35079 ft 457 kts 50°
2026-04-25 15:40 47.51917 -67.03233 35096 ft 457 kts 50°
2026-04-25 15:40 47.56494 -66.94644 35077 ft 457 kts 50°
2026-04-25 15:41 47.60430 -66.87242 35090 ft 457 kts 50°
2026-04-25 15:41 47.64365 -66.79815 35073 ft 459 kts 50°
2026-04-25 15:42 47.68279 -66.72409 35093 ft 459 kts 50°
2026-04-25 15:42 47.72212 -66.64952 35078 ft 459 kts 50°
2026-04-25 15:43 47.76141 -66.57476 35079 ft 459 kts 50°
2026-04-25 15:43 47.80060 -66.49995 35076 ft 459 kts 50°
2026-04-25 15:44 47.83976 -66.42501 35077 ft 459 kts 50°
2026-04-25 15:44 47.87868 -66.35035 35070 ft 459 kts 50°
2026-04-25 15:45 47.91776 -66.27516 35074 ft 459 kts 50°
2026-04-25 15:45 47.95022 -66.21257 35068 ft 459 kts 51°
2026-04-25 15:46 47.99579 -66.12444 35058 ft 459 kts 51°
2026-04-25 15:46 48.03469 -66.04898 35062 ft 459 kts 51°
2026-04-25 15:47 48.07334 -65.97381 35048 ft 459 kts 51°
2026-04-25 15:47 48.11217 -65.89806 35049 ft 459 kts 51°
2026-04-25 15:48 48.15091 -65.82228 35052 ft 459 kts 51°
2026-04-25 15:48 48.18962 -65.74636 35042 ft 458 kts 51°
2026-04-25 15:49 48.22830 -65.67029 35042 ft 459 kts 51°
2026-04-25 15:49 48.26690 -65.59413 35040 ft 459 kts 51°
2026-04-25 15:50 48.30554 -65.51763 35039 ft 460 kts 51°
2026-04-25 15:50 48.34391 -65.44154 35042 ft 460 kts 51°
2026-04-25 15:51 48.37622 -65.37730 35045 ft 460 kts 51°
2026-04-25 15:51 48.42098 -65.28803 35034 ft 460 kts 51°
2026-04-25 15:52 48.45944 -65.21106 35037 ft 460 kts 51°
2026-04-25 15:52 48.49787 -65.13394 35038 ft 460 kts 51°
2026-04-25 15:53 48.53621 -65.05680 35035 ft 460 kts 51°
2026-04-25 15:53 48.57434 -64.97989 35044 ft 460 kts 51°
2026-04-25 15:54 48.61247 -64.90265 35032 ft 457 kts 51°
2026-04-25 15:54 48.65038 -64.82576 35037 ft 455 kts 51°
2026-04-25 15:55 48.68816 -64.74893 35036 ft 455 kts 51°
2026-04-25 15:55 48.72588 -64.67195 35036 ft 455 kts 51°
2026-04-25 15:56 48.76333 -64.59526 35037 ft 455 kts 51°
2026-04-25 15:56 48.80085 -64.51824 35037 ft 454 kts 51°
2026-04-25 15:57 48.83836 -64.44101 35038 ft 454 kts 51°
2026-04-25 15:57 48.87579 -64.36375 35040 ft 454 kts 51°
2026-04-25 15:58 48.91317 -64.28634 35036 ft 455 kts 51°
2026-04-25 15:58 48.95035 -64.20914 35028 ft 455 kts 51°
2026-04-25 15:59 48.98773 -64.13130 35020 ft 455 kts 51°
2026-04-25 15:59 49.02504 -64.05339 35039 ft 455 kts 51°
2026-04-25 16:00 49.05004 -64.00109 35025 ft 457 kts 51°
2026-04-25 16:00 49.09989 -63.89643 35013 ft 459 kts 51°
2026-04-25 16:01 49.13736 -63.81743 34999 ft 459 kts 51°
2026-04-25 16:01 49.17451 -63.73890 34997 ft 459 kts 51°
2026-04-25 16:02 49.21186 -63.65975 34995 ft 459 kts 52°
2026-04-25 16:02 49.24914 -63.58049 34990 ft 458 kts 52°
2026-04-25 16:03 49.28625 -63.50136 34991 ft 458 kts 52°
2026-04-25 16:03 49.32335 -63.42205 34979 ft 458 kts 52°
2026-04-25 16:04 49.36008 -63.34327 34980 ft 458 kts 52°
2026-04-25 16:04 49.39702 -63.26381 34978 ft 455 kts 52°
2026-04-25 16:05 49.43356 -63.18496 34982 ft 452 kts 52°
2026-04-25 16:06 49.48796 -63.06719 34981 ft 452 kts 51°
2026-04-25 16:06 49.52428 -62.98825 34965 ft 451 kts 52°
2026-04-25 16:07 49.56056 -62.90920 34973 ft 454 kts 52°
2026-04-25 16:07 49.59702 -62.82950 34972 ft 455 kts 52°
2026-04-25 16:08 49.63343 -62.74962 34974 ft 455 kts 52°
2026-04-25 16:08 49.66958 -62.67007 34956 ft 455 kts 52°
2026-04-25 16:09 49.70590 -62.58995 34960 ft 455 kts 52°
2026-04-25 16:09 49.74206 -62.50992 34948 ft 454 kts 52°
2026-04-25 16:10 49.77815 -62.42984 34948 ft 454 kts 52°
2026-04-25 16:10 49.81421 -62.34955 34946 ft 454 kts 52°
2026-04-25 16:11 49.84995 -62.26975 34926 ft 454 kts 52°
2026-04-25 16:11 49.88581 -62.18943 34924 ft 452 kts 52°
2026-04-25 16:12 49.92149 -62.10926 34923 ft 451 kts 53°
2026-04-25 16:12 49.95711 -62.02901 34919 ft 451 kts 53°
2026-04-25 16:13 49.99243 -61.94919 34903 ft 452 kts 53°
2026-04-25 16:13 50.02798 -61.86860 34905 ft 452 kts 53°
2026-04-25 16:14 50.06343 -61.78798 34906 ft 452 kts 53°
2026-04-25 16:14 50.09887 -61.70716 34906 ft 452 kts 53°
2026-04-25 16:15 50.13421 -61.62629 34905 ft 452 kts 53°
2026-04-25 16:15 50.16929 -61.54579 34916 ft 452 kts 53°
2026-04-25 16:16 50.20452 -61.46467 34902 ft 451 kts 53°
2026-04-25 16:16 50.23971 -61.38343 34900 ft 451 kts 53°
2026-04-25 16:17 50.27481 -61.30212 34894 ft 451 kts 53°
2026-04-25 16:17 50.30962 -61.22126 34895 ft 451 kts 53°
2026-04-25 16:18 50.34464 -61.13964 34898 ft 452 kts 53°
2026-04-25 16:18 50.37970 -61.05769 34899 ft 453 kts 53°
2026-04-25 16:19 50.41474 -60.97549 34882 ft 453 kts 53°
2026-04-25 16:19 50.44974 -60.89316 34885 ft 454 kts 54°
2026-04-25 16:20 50.50189 -60.77000 34892 ft 453 kts 54°
2026-04-25 16:21 50.55409 -60.64614 34894 ft 453 kts 54°
2026-04-25 16:21 50.58884 -60.56335 34896 ft 453 kts 54°
2026-04-25 16:22 50.62327 -60.48107 34895 ft 453 kts 54°
2026-04-25 16:22 50.65790 -60.39805 34899 ft 453 kts 54°
2026-04-25 16:23 50.69237 -60.31512 34891 ft 451 kts 54°
2026-04-25 16:23 50.72672 -60.23227 34892 ft 451 kts 54°
2026-04-25 16:24 50.76098 -60.14937 34890 ft 451 kts 55°
2026-04-25 16:24 50.79495 -60.06688 34894 ft 451 kts 55°
2026-04-25 16:25 50.82908 -59.98374 34895 ft 450 kts 55°
2026-04-25 16:25 50.86303 -59.90077 34880 ft 449 kts 55°
2026-04-25 16:26 50.89696 -59.81762 34879 ft 449 kts 55°
2026-04-25 16:26 50.93077 -59.73449 34884 ft 449 kts 55°
2026-04-25 16:27 50.96431 -59.65172 34889 ft 449 kts 55°
2026-04-25 16:27 50.99798 -59.56838 34887 ft 448 kts 55°
2026-04-25 16:28 51.03155 -59.48505 34869 ft 448 kts 56°
2026-04-25 16:28 51.06507 -59.40155 34867 ft 448 kts 56°
2026-04-25 16:29 51.09849 -59.31803 34867 ft 448 kts 56°
2026-04-25 16:29 51.13163 -59.23496 34871 ft 447 kts 56°
2026-04-25 16:30 51.16481 -59.15150 34872 ft 445 kts 56°
2026-04-25 16:30 51.19785 -59.06813 34871 ft 445 kts 56°
2026-04-25 16:31 51.23086 -58.98457 34851 ft 446 kts 56°
2026-04-25 16:31 51.26385 -58.90080 34850 ft 446 kts 56°
2026-04-25 16:32 51.29659 -58.81737 34851 ft 445 kts 56°
2026-04-25 16:32 51.32936 -58.73360 34848 ft 445 kts 56°
2026-04-25 16:33 51.36211 -58.64960 34852 ft 445 kts 56°
2026-04-25 16:33 51.39475 -58.56562 34833 ft 444 kts 56°
2026-04-25 16:34 51.42733 -58.48152 34832 ft 444 kts 56°
2026-04-25 16:34 51.45964 -58.39785 34834 ft 444 kts 56°
2026-04-25 16:35 51.48684 -58.32720 34843 ft 444 kts 56°
2026-04-25 16:35 51.52446 -58.22915 34839 ft 444 kts 56°
2026-04-25 16:36 51.55675 -58.14472 34819 ft 444 kts 56°
2026-04-25 16:36 51.58902 -58.06004 34823 ft 444 kts 56°
2026-04-25 16:37 51.62121 -57.97528 34826 ft 444 kts 56°
2026-04-25 16:37 51.65312 -57.89099 34825 ft 445 kts 57°
2026-04-25 16:38 51.68533 -57.80567 34827 ft 445 kts 57°
2026-04-25 16:38 51.71742 -57.72032 34810 ft 445 kts 57°
2026-04-25 16:39 51.74944 -57.63489 34814 ft 444 kts 58°
2026-04-25 16:39 51.78105 -57.55026 34814 ft 442 kts 58°
2026-04-25 16:40 51.80757 -57.47903 34823 ft 442 kts 58°
2026-04-25 16:40 51.84436 -57.37993 34820 ft 442 kts 58°
2026-04-25 16:41 51.87590 -57.29463 34812 ft 442 kts 58°
2026-04-25 16:41 51.92297 -57.16683 34820 ft 442 kts 58°
2026-04-25 16:42 51.95437 -57.08121 34820 ft 442 kts 58°
2026-04-25 16:42 51.98576 -56.99534 34832 ft 442 kts 58°
2026-04-25 16:43 52.01703 -56.90949 34832 ft 442 kts 58°
2026-04-25 16:43 52.04829 -56.82340 34835 ft 443 kts 59°
2026-04-25 16:44 52.07959 -56.73689 34823 ft 446 kts 59°
2026-04-25 16:44 52.11077 -56.65040 34834 ft 446 kts 59°
2026-04-25 16:45 52.14211 -56.56316 34834 ft 446 kts 59°
2026-04-25 16:45 52.17337 -56.47587 34840 ft 446 kts 59°
2026-04-25 16:46 52.20457 -56.38843 34840 ft 446 kts 59°
2026-04-25 16:46 52.22521 -56.33041 34830 ft 446 kts 59°
2026-04-25 16:47 52.26661 -56.21367 34817 ft 446 kts 59°
2026-04-25 16:47 52.29761 -56.12588 34811 ft 446 kts 59°
2026-04-25 16:48 52.32853 -56.03799 34806 ft 446 kts 60°
2026-04-25 16:48 52.35882 -55.95007 34804 ft 448 kts 63°
2026-04-25 16:49 52.37863 -55.85294 34803 ft 456 kts 79°
2026-04-25 16:49 52.38216 -55.74897 34813 ft 458 kts 84°
2026-04-25 16:50 52.39132 -55.64596 34802 ft 458 kts 78°
2026-04-25 16:50 52.40354 -55.54353 34797 ft 458 kts 77°
2026-04-25 16:51 52.41636 -55.44201 34788 ft 458 kts 77°
2026-04-25 16:51 52.42501 -55.37367 34785 ft 458 kts 77°
2026-04-25 16:52 52.44196 -55.23802 34746 ft 456 kts 77°
2026-04-25 16:52 52.45450 -55.13621 34746 ft 456 kts 77°
2026-04-25 16:53 52.47308 -54.98389 34714 ft 457 kts 77°
2026-04-25 16:54 52.48546 -54.88149 34724 ft 458 kts 77°
2026-04-25 16:54 52.49776 -54.77890 34722 ft 458 kts 77°
2026-04-25 16:55 52.50995 -54.67637 34694 ft 457 kts 77°
2026-04-25 16:55 52.52204 -54.57397 34700 ft 457 kts 77°
2026-04-25 16:56 52.53404 -54.47160 34692 ft 457 kts 77°
2026-04-25 16:56 52.54587 -54.36973 34691 ft 457 kts 77°
2026-04-25 16:57 52.55769 -54.26722 34692 ft 458 kts 78°
2026-04-25 16:57 52.56949 -54.16401 34670 ft 460 kts 78°
2026-04-25 16:58 52.58121 -54.06070 34671 ft 460 kts 78°
2026-04-25 16:58 52.59284 -53.95730 34668 ft 460 kts 78°
2026-04-25 16:59 52.60439 -53.85377 34659 ft 460 kts 78°
2026-04-25 16:59 52.61577 -53.75094 34658 ft 460 kts 78°
2026-04-25 17:00 52.62714 -53.64727 34652 ft 460 kts 78°
2026-04-25 17:00 52.63841 -53.54369 34644 ft 461 kts 78°
2026-04-25 17:01 52.64964 -53.43953 34645 ft 463 kts 78°
2026-04-25 17:01 52.66071 -53.33601 34645 ft 462 kts 79°
2026-04-25 17:02 52.67177 -53.23170 34635 ft 462 kts 79°
2026-04-25 17:02 52.68272 -53.12737 34634 ft 463 kts 79°
2026-04-25 17:03 52.69359 -53.02296 34634 ft 462 kts 79°
2026-04-25 17:03 52.70430 -52.91923 34625 ft 463 kts 79°
2026-04-25 17:04 52.71500 -52.81461 34634 ft 463 kts 79°
2026-04-25 17:04 52.72560 -52.71001 34626 ft 463 kts 79°
2026-04-25 17:05 52.73613 -52.60517 34615 ft 463 kts 79°
2026-04-25 17:05 52.75167 -52.44857 34614 ft 463 kts 79°
2026-04-25 17:06 52.76196 -52.34374 34601 ft 462 kts 80°
2026-04-25 17:06 52.77216 -52.23880 34603 ft 462 kts 80°
2026-04-25 17:07 52.78226 -52.13384 34602 ft 463 kts 80°
2026-04-25 17:07 52.79226 -52.02886 34592 ft 461 kts 80°
2026-04-25 17:08 52.80208 -51.92473 34589 ft 462 kts 80°
2026-04-25 17:08 52.81190 -51.81967 34592 ft 462 kts 80°
2026-04-25 17:09 52.82164 -51.71446 34591 ft 462 kts 80°
2026-04-25 17:09 52.83127 -51.60934 34594 ft 462 kts 80°
2026-04-25 17:10 52.84076 -51.50473 34584 ft 462 kts 80°
2026-04-25 17:10 52.85020 -51.39968 34580 ft 461 kts 81°
2026-04-25 17:11 52.85954 -51.29459 34583 ft 461 kts 81°
2026-04-25 17:11 52.86877 -51.18956 34584 ft 462 kts 81°
2026-04-25 17:12 52.87792 -51.08444 34578 ft 461 kts 81°
2026-04-25 17:12 52.88693 -50.97982 34580 ft 462 kts 81°
2026-04-25 17:13 52.89294 -50.90938 34578 ft 463 kts 81°
2026-04-25 17:13 52.90477 -50.76920 34576 ft 461 kts 81°
2026-04-25 17:14 52.91206 -50.68188 34572 ft 461 kts 81°
2026-04-25 17:14 52.92215 -50.55963 34582 ft 461 kts 81°
2026-04-25 17:15 52.93074 -50.45426 34568 ft 461 kts 82°
2026-04-25 17:15 52.93780 -50.36673 34568 ft 461 kts 82°
2026-04-25 17:16 52.94620 -50.26146 34559 ft 461 kts 82°
2026-04-25 17:16 52.95453 -50.15596 34556 ft 461 kts 82°
2026-04-25 17:17 52.96277 -50.05053 34563 ft 461 kts 82°
2026-04-25 17:17 52.97386 -49.94593 34552 ft 461 kts 77°
2026-04-25 17:18 52.98824 -49.84292 34555 ft 461 kts 76°
2026-04-25 17:18 53.00315 -49.73950 34560 ft 461 kts 76°
2026-04-25 17:19 53.01799 -49.63592 34557 ft 461 kts 77°
2026-04-25 17:19 53.03267 -49.53229 34551 ft 461 kts 77°
2026-04-25 17:20 53.04723 -49.42843 34552 ft 461 kts 77°
2026-04-25 17:20 53.06157 -49.32538 34557 ft 461 kts 77°
2026-04-25 17:21 53.07596 -49.22128 34549 ft 462 kts 77°
2026-04-25 17:21 53.09025 -49.11724 34552 ft 462 kts 77°
2026-04-25 17:22 53.10206 -49.03069 34551 ft 462 kts 77°
2026-04-25 17:22 53.11857 -48.90876 34552 ft 462 kts 77°
2026-04-25 17:23 53.13259 -48.80452 34553 ft 462 kts 78°
2026-04-25 17:23 53.14645 -48.70067 34552 ft 462 kts 78°
2026-04-25 17:24 53.16031 -48.59607 34554 ft 463 kts 78°
2026-04-25 17:24 53.17410 -48.49130 34544 ft 462 kts 78°
2026-04-25 17:25 53.18777 -48.38657 34543 ft 463 kts 78°
2026-04-25 17:25 53.20129 -48.28226 34547 ft 463 kts 78°
2026-04-25 17:26 53.21480 -48.17734 34555 ft 463 kts 78°
2026-04-25 17:26 53.22820 -48.07238 34548 ft 463 kts 78°
2026-04-25 17:27 53.24153 -47.96720 34558 ft 463 kts 79°
2026-04-25 17:27 53.25255 -47.87970 34548 ft 464 kts 79°
2026-04-25 17:28 53.26788 -47.75698 34545 ft 464 kts 79°
2026-04-25 17:28 53.28095 -47.65145 34550 ft 464 kts 79°
2026-04-25 17:29 53.29394 -47.54578 34549 ft 464 kts 79°
2026-04-25 17:29 53.30682 -47.44021 34547 ft 464 kts 79°
2026-04-25 17:30 53.31962 -47.33442 34550 ft 464 kts 79°
2026-04-25 17:30 53.33224 -47.22933 34540 ft 464 kts 80°
2026-04-25 17:31 53.34484 -47.12353 34546 ft 464 kts 80°
2026-04-25 17:31 53.35736 -47.01757 34549 ft 465 kts 80°
2026-04-25 17:32 53.36982 -46.91124 34554 ft 465 kts 80°
2026-04-25 17:32 53.38218 -46.80492 34553 ft 465 kts 80°
2026-04-25 17:33 53.39445 -46.69844 34552 ft 465 kts 80°
2026-04-25 17:33 53.40654 -46.59271 34553 ft 465 kts 80°
2026-04-25 17:34 53.41862 -46.48621 34562 ft 465 kts 80°
2026-04-25 17:34 53.43061 -46.37954 34561 ft 465 kts 81°
2026-04-25 17:35 53.44249 -46.27292 34553 ft 465 kts 81°
2026-04-25 17:35 53.45422 -46.16683 34553 ft 465 kts 81°
2026-04-25 17:36 53.46592 -46.06007 34552 ft 466 kts 81°
2026-04-25 17:36 53.47754 -45.95312 34554 ft 465 kts 81°
2026-04-25 17:37 53.48905 -45.84619 34550 ft 465 kts 81°
2026-04-25 17:37 53.50047 -45.73913 34559 ft 466 kts 81°
2026-04-25 17:38 53.50989 -45.65020 34561 ft 466 kts 81°
2026-04-25 17:38 53.52294 -45.52573 34565 ft 465 kts 82°
2026-04-25 17:39 53.53408 -45.41850 34562 ft 465 kts 82°
2026-04-25 17:39 53.54513 -45.31125 34576 ft 466 kts 82°
2026-04-25 17:40 53.55608 -45.20381 34576 ft 466 kts 82°
2026-04-25 17:40 53.56684 -45.09731 34562 ft 465 kts 82°
2026-04-25 17:41 53.57758 -44.99000 34579 ft 465 kts 82°
2026-04-25 17:41 53.58821 -44.88276 34577 ft 465 kts 82°
2026-04-25 17:42 53.59876 -44.77532 34581 ft 465 kts 83°
2026-04-25 17:42 53.60922 -44.66777 34583 ft 466 kts 83°
2026-04-25 17:43 53.61959 -44.56013 34588 ft 466 kts 83°
2026-04-25 17:43 53.62980 -44.45306 34586 ft 466 kts 83°
2026-04-25 17:44 53.63997 -44.34536 34594 ft 466 kts 83°
2026-04-25 17:44 53.65006 -44.23746 34595 ft 466 kts 83°
2026-04-25 17:45 53.65837 -44.14768 34594 ft 467 kts 83°
2026-04-25 17:45 53.66998 -44.02107 34598 ft 467 kts 83°
2026-04-25 17:46 53.67974 -43.91345 34596 ft 467 kts 84°
2026-04-25 17:46 53.68946 -43.80504 34610 ft 467 kts 84°
2026-04-25 17:47 53.69909 -43.69661 34604 ft 467 kts 84°
2026-04-25 17:47 53.70862 -43.58810 34602 ft 467 kts 84°
2026-04-25 17:48 53.72271 -43.42552 34611 ft 466 kts 84°
2026-04-25 17:49 53.73198 -43.31704 34615 ft 468 kts 85°
2026-04-25 17:49 53.74120 -43.20786 34615 ft 471 kts 85°
2026-04-25 17:50 53.75036 -43.09826 34625 ft 471 kts 85°
2026-04-25 17:50 53.75942 -42.98873 34604 ft 471 kts 85°
2026-04-25 17:51 53.76838 -42.87907 34637 ft 470 kts 85°
2026-04-25 17:51 53.77722 -42.76963 34637 ft 470 kts 85°
2026-04-25 17:52 53.78596 -42.66010 34632 ft 470 kts 85°
2026-04-25 17:52 53.79460 -42.55049 34640 ft 470 kts 85°
2026-04-25 17:53 53.80309 -42.44158 34640 ft 470 kts 85°
2026-04-25 17:53 53.81154 -42.33181 34644 ft 470 kts 86°
2026-04-25 17:54 53.81988 -42.22212 34648 ft 470 kts 86°
2026-04-25 17:54 53.82813 -42.11223 34655 ft 470 kts 86°
2026-04-25 17:55 53.83627 -42.00244 34656 ft 470 kts 86°
2026-04-25 17:55 53.84431 -41.89262 34661 ft 470 kts 86°
2026-04-25 17:56 53.85225 -41.78264 34660 ft 470 kts 86°
2026-04-25 17:56 53.86009 -41.67269 34663 ft 471 kts 86°
2026-04-25 17:57 53.86785 -41.56253 34663 ft 471 kts 86°
2026-04-25 17:57 53.87550 -41.45242 34669 ft 471 kts 87°
2026-04-25 17:58 53.88302 -41.34258 34676 ft 472 kts 87°
2026-04-25 17:58 53.89049 -41.23199 34682 ft 472 kts 88°
2026-04-25 17:59 53.89786 -41.12135 34672 ft 473 kts 87°
2026-04-25 17:59 53.90515 -41.01035 34684 ft 474 kts 87°
2026-04-25 18:00 53.91234 -40.89926 34690 ft 474 kts 87°
2026-04-25 18:00 53.91944 -40.78803 34690 ft 474 kts 88°
2026-04-25 18:01 53.92642 -40.67693 34693 ft 474 kts 88°
2026-04-25 18:01 53.93331 -40.56563 34696 ft 474 kts 88°
2026-04-25 18:02 53.94010 -40.45447 34700 ft 473 kts 89°
2026-04-25 18:02 53.94677 -40.34326 34705 ft 473 kts 89°
2026-04-25 18:03 53.95332 -40.23215 34705 ft 473 kts 89°
2026-04-25 18:03 53.95978 -40.12093 34705 ft 473 kts 89°
2026-04-25 18:04 53.96614 -40.00982 34705 ft 473 kts 89°
2026-04-25 18:04 53.97173 -39.89868 34695 ft 472 kts 90°
2026-04-25 18:05 53.97590 -39.78694 34715 ft 475 kts 91°
2026-04-25 18:05 53.97998 -39.67499 34711 ft 475 kts 91°
2026-04-25 18:06 53.98417 -39.56368 34714 ft 475 kts 91°
2026-04-25 18:06 53.98837 -39.45198 34717 ft 474 kts 91°
2026-04-25 18:07 53.99247 -39.34022 34725 ft 474 kts 91°
2026-04-25 18:07 53.99645 -39.22856 34715 ft 474 kts 91°
2026-04-25 18:08 54.00034 -39.11596 34735 ft 479 kts 91°
2026-04-25 18:08 54.00415 -39.00304 34735 ft 479 kts 91°
2026-04-25 18:09 54.00788 -38.89000 34745 ft 479 kts 91°
2026-04-25 18:09 54.01148 -38.77709 34753 ft 478 kts 91°
2026-04-25 18:10 54.01498 -38.66408 34742 ft 478 kts 91°
2026-04-25 18:10 54.01836 -38.55132 34749 ft 479 kts 92°
2026-04-25 18:11 54.02164 -38.43772 34751 ft 482 kts 92°
2026-04-25 18:11 54.02485 -38.32392 34758 ft 482 kts 92°
2026-04-25 18:12 54.02793 -38.21080 34754 ft 482 kts 92°
2026-04-25 18:12 54.03091 -38.09707 34769 ft 481 kts 92°
2026-04-25 18:13 54.03379 -37.98329 34746 ft 481 kts 92°
2026-04-25 18:13 54.03655 -37.86909 34767 ft 485 kts 92°
2026-04-25 18:14 54.04052 -37.69768 34771 ft 486 kts 92°
2026-04-25 18:14 54.04305 -37.58274 34782 ft 486 kts 92°
2026-04-25 18:15 54.04547 -37.46787 34780 ft 486 kts 92°
2026-04-25 18:15 54.04776 -37.35310 34779 ft 486 kts 92°
2026-04-25 18:16 54.04994 -37.23879 34788 ft 488 kts 92°
2026-04-25 18:17 54.05303 -37.06538 34794 ft 489 kts 92°
2026-04-25 18:17 54.05497 -36.94982 34793 ft 489 kts 92°
2026-04-25 18:18 54.05679 -36.83425 34799 ft 489 kts 93°
2026-04-25 18:18 54.05848 -36.71938 34804 ft 489 kts 93°
2026-04-25 18:19 54.06007 -36.60341 34801 ft 491 kts 93°
2026-04-25 18:19 54.06156 -36.48696 34807 ft 492 kts 93°
2026-04-25 18:20 54.06295 -36.37052 34807 ft 492 kts 93°
2026-04-25 18:20 54.06422 -36.25474 34818 ft 492 kts 93°
2026-04-25 18:21 54.06519 -36.15789 34818 ft 492 kts 93°
2026-04-25 18:21 54.06585 -36.08791 34818 ft 492 kts 93°
2026-04-25 18:22 54.06684 -35.97139 34819 ft 494 kts 93°
2026-04-25 18:22 54.06772 -35.85508 34823 ft 496 kts 93°
2026-04-25 18:23 54.06850 -35.73765 34828 ft 496 kts 93°
2026-04-25 18:23 54.06917 -35.62026 34829 ft 496 kts 93°
2026-04-25 18:24 54.06972 -35.50296 34835 ft 496 kts 93°
2026-04-25 18:24 54.07015 -35.38566 34830 ft 496 kts 93°
2026-04-25 18:25 54.07047 -35.26788 34844 ft 497 kts 93°
2026-04-25 18:25 54.07067 -35.15019 34842 ft 498 kts 93°
2026-04-25 18:26 54.07077 -35.03231 34831 ft 498 kts 94°
2026-04-25 18:26 54.07074 -34.91436 34851 ft 498 kts 94°
2026-04-25 18:27 54.07060 -34.79637 34855 ft 498 kts 94°
2026-04-25 18:27 54.07034 -34.67828 34859 ft 500 kts 93°
2026-04-25 18:28 54.06997 -34.55976 34859 ft 501 kts 94°
2026-04-25 18:28 54.06949 -34.44118 34866 ft 501 kts 94°
2026-04-25 18:29 54.06854 -34.26333 34866 ft 501 kts 94°
2026-04-25 18:30 54.06686 -34.02623 34861 ft 501 kts 94°
2026-04-25 18:30 54.06602 -33.92752 34873 ft 501 kts 94°
2026-04-25 18:31 54.06491 -33.80897 34874 ft 501 kts 94°
2026-04-25 18:31 54.06366 -33.68771 34870 ft 501 kts 94°
2026-04-25 18:32 54.06231 -33.56915 34870 ft 501 kts 94°
2026-04-25 18:32 54.06084 -33.45057 34874 ft 502 kts 94°
2026-04-25 18:33 54.05925 -33.33152 34880 ft 503 kts 94°
2026-04-25 18:33 54.05755 -33.21245 34880 ft 503 kts 94°
2026-04-25 18:34 54.05573 -33.09334 34885 ft 503 kts 94°
2026-04-25 18:34 54.05478 -33.03390 35052 ft 502 kts 94°
2026-04-25 18:34 54.05380 -32.97445 35261 ft 502 kts 94°
2026-04-25 18:35 54.05279 -32.91514 35471 ft 502 kts 94°
2026-04-25 18:35 54.05175 -32.85582 35654 ft 501 kts 95°
2026-04-25 18:35 54.05067 -32.79640 35802 ft 502 kts 94°
2026-04-25 18:35 54.04957 -32.73694 35946 ft 503 kts 94°
2026-04-25 18:36 54.04844 -32.67749 36132 ft 503 kts 94°
2026-04-25 18:36 54.04728 -32.61812 36327 ft 502 kts 94°
2026-04-25 18:36 54.04609 -32.55864 36505 ft 502 kts 94°
2026-04-25 18:36 54.04488 -32.49927 36677 ft 502 kts 94°
2026-04-25 18:37 54.04363 -32.43990 36851 ft 502 kts 94°
2026-04-25 18:37 54.04235 -32.38031 36895 ft 505 kts 94°
2026-04-25 18:37 54.03970 -32.26117 36888 ft 503 kts 94°
2026-04-25 18:38 54.03694 -32.14210 36898 ft 504 kts 94°
2026-04-25 18:38 54.03405 -32.02287 36898 ft 505 kts 94°
2026-04-25 18:39 54.03104 -31.90357 36907 ft 505 kts 95°
2026-04-25 18:39 54.02792 -31.78429 36907 ft 505 kts 95°
2026-04-25 18:40 54.02468 -31.66500 36901 ft 505 kts 95°
2026-04-25 18:40 54.02132 -31.54572 36907 ft 505 kts 95°
2026-04-25 18:41 54.01783 -31.42636 36907 ft 506 kts 95°
2026-04-25 18:41 54.01423 -31.30683 36909 ft 507 kts 95°
2026-04-25 18:42 54.01114 -31.20740 36911 ft 507 kts 95°
2026-04-25 18:42 54.00668 -31.06829 36916 ft 507 kts 95°
2026-04-25 18:43 54.00271 -30.94861 36921 ft 507 kts 95°
2026-04-25 18:43 53.99862 -30.82899 36921 ft 508 kts 95°
2026-04-25 18:44 53.99440 -30.70901 36921 ft 508 kts 95°
2026-04-25 18:44 53.99007 -30.58914 36925 ft 508 kts 95°
2026-04-25 18:45 53.98561 -30.46929 36925 ft 508 kts 95°
2026-04-25 18:45 53.98103 -30.34933 36931 ft 509 kts 95°
2026-04-25 18:46 53.97634 -30.22945 36930 ft 509 kts 95°
2026-04-25 18:46 53.97150 -30.10921 36934 ft 510 kts 95°
2026-04-25 18:47 53.96808 -29.98884 36937 ft 512 kts 89°
2026-04-25 18:47 53.97175 -29.86794 36938 ft 512 kts 87°
2026-04-25 18:48 53.97664 -29.74727 36936 ft 512 kts 87°
2026-04-25 18:48 53.98157 -29.62649 36935 ft 513 kts 87°
2026-04-25 18:49 53.98626 -29.50569 36939 ft 513 kts 87°
2026-04-25 18:49 53.99075 -29.38471 36941 ft 513 kts 87°
2026-04-25 18:50 53.99510 -29.26361 36947 ft 513 kts 88°
2026-04-25 18:50 53.99933 -29.14243 36934 ft 514 kts 88°
2026-04-25 18:51 54.00276 -29.04177 36939 ft 514 kts 88°
2026-04-25 18:51 54.00742 -28.90068 36940 ft 514 kts 88°
2026-04-25 18:52 54.01129 -28.77943 36944 ft 514 kts 88°
2026-04-25 18:52 54.01505 -28.65798 36947 ft 514 kts 88°
2026-04-25 18:53 54.01868 -28.53664 36944 ft 514 kts 88°
2026-04-25 18:53 54.02219 -28.41512 36946 ft 514 kts 88°
2026-04-25 18:54 54.02723 -28.23276 36951 ft 515 kts 88°
2026-04-25 18:55 54.03043 -28.11121 36945 ft 515 kts 88°
2026-04-25 18:55 54.03352 -27.98946 36955 ft 515 kts 88°
2026-04-25 18:56 54.03648 -27.86783 36954 ft 515 kts 88°
2026-04-25 18:56 54.03932 -27.74605 36954 ft 515 kts 89°
2026-04-25 18:57 54.04204 -27.62438 36955 ft 515 kts 89°
2026-04-25 18:57 54.04463 -27.50257 36960 ft 515 kts 89°
2026-04-25 18:58 54.04710 -27.38086 36964 ft 515 kts 89°
2026-04-25 18:58 54.05058 -27.19801 36955 ft 516 kts 89°
2026-04-25 18:59 54.05479 -26.95396 36956 ft 516 kts 89°
2026-04-25 19:00 54.05762 -26.77086 36962 ft 516 kts 89°
2026-04-25 19:01 54.06018 -26.58758 36961 ft 517 kts 89°
2026-04-25 19:01 54.06172 -26.46608 36966 ft 517 kts 89°
2026-04-25 19:02 54.06382 -26.28272 36955 ft 517 kts 90°
2026-04-25 19:03 54.06526 -26.13978 36970 ft 517 kts 90°
2026-04-25 19:03 54.06669 -25.97690 36966 ft 517 kts 90°
2026-04-25 19:04 54.06804 -25.79332 36968 ft 517 kts 90°
2026-04-25 19:05 54.06941 -25.54851 36968 ft 517 kts 90°
2026-04-25 19:06 54.06991 -25.42621 36963 ft 517 kts 90°
2026-04-25 19:06 54.07042 -25.24269 36966 ft 517 kts 91°
2026-04-25 19:07 54.07065 -25.05905 36971 ft 517 kts 91°
2026-04-25 19:08 54.07061 -24.87547 36971 ft 517 kts 91°
2026-04-25 19:09 54.07023 -24.67201 36974 ft 517 kts 91°
2026-04-25 19:10 54.06942 -24.44695 36976 ft 517 kts 91°
2026-04-25 19:10 54.06880 -24.32461 36972 ft 517 kts 92°
2026-04-25 19:11 54.06806 -24.20309 36976 ft 516 kts 92°
2026-04-25 19:11 54.06719 -24.08097 36979 ft 516 kts 92°
2026-04-25 19:12 54.06620 -23.95873 36978 ft 516 kts 92°
2026-04-25 19:12 54.06509 -23.83662 36984 ft 516 kts 92°
2026-04-25 19:13 54.06406 -23.73424 36982 ft 517 kts 92°
2026-04-25 19:13 54.06271 -23.61186 36986 ft 517 kts 92°
2026-04-25 19:14 54.06125 -23.48950 36983 ft 517 kts 92°
2026-04-25 19:14 54.05967 -23.36803 36986 ft 517 kts 92°
2026-04-25 19:15 54.05796 -23.24576 36985 ft 517 kts 93°
2026-04-25 19:15 54.05612 -23.12363 36979 ft 516 kts 93°
2026-04-25 19:16 54.05416 -23.00164 36990 ft 515 kts 93°
2026-04-25 19:16 54.05208 -22.87970 36992 ft 515 kts 94°
2026-04-25 19:17 54.04988 -22.75796 36989 ft 515 kts 94°
2026-04-25 19:17 54.04755 -22.63615 36993 ft 515 kts 94°
2026-04-25 19:18 54.04510 -22.51442 36993 ft 515 kts 94°
2026-04-25 19:18 54.04253 -22.39266 36995 ft 515 kts 94°
2026-04-25 19:19 54.03984 -22.27092 36991 ft 515 kts 94°
2026-04-25 19:19 54.03702 -22.14913 36995 ft 515 kts 94°
2026-04-25 19:20 54.03408 -22.02749 36995 ft 515 kts 94°
2026-04-25 19:20 54.03102 -21.90574 36995 ft 515 kts 94°
2026-04-25 19:21 54.02783 -21.78413 37003 ft 515 kts 95°
2026-04-25 19:21 54.02285 -21.60251 37005 ft 515 kts 95°
2026-04-25 19:22 54.01936 -21.48092 37011 ft 515 kts 95°
2026-04-25 19:23 54.01389 -21.29856 37006 ft 515 kts 95°
2026-04-25 19:23 54.00815 -21.11616 37014 ft 515 kts 95°
2026-04-25 19:24 54.00416 -20.99455 37013 ft 515 kts 95°
2026-04-25 19:25 53.99584 -20.75169 37020 ft 514 kts 96°
2026-04-25 19:25 53.99150 -20.63041 37022 ft 514 kts 96°
2026-04-25 19:26 53.98704 -20.50921 37028 ft 513 kts 96°
2026-04-25 19:26 53.98246 -20.38839 37023 ft 513 kts 96°
2026-04-25 19:27 53.97857 -20.28797 37033 ft 512 kts 96°
2026-04-25 19:27 53.97296 -20.14698 37038 ft 512 kts 96°
2026-04-25 19:28 53.96812 -20.02729 37038 ft 512 kts 96°
2026-04-25 19:28 53.96856 -19.90524 37045 ft 513 kts 90°
2026-04-25 19:29 53.97077 -19.78486 37044 ft 514 kts 90°
2026-04-25 19:29 53.97317 -19.66359 37048 ft 513 kts 90°
2026-04-25 19:30 53.97537 -19.54239 37048 ft 513 kts 90°
2026-04-25 19:30 53.97740 -19.42047 37056 ft 513 kts 91°
2026-04-25 19:31 53.97925 -19.30003 37053 ft 513 kts 91°
2026-04-25 19:31 53.98099 -19.17883 37032 ft 513 kts 91°
2026-04-25 19:32 53.98261 -19.05793 37061 ft 511 kts 91°
2026-04-25 19:32 53.98386 -18.95771 37060 ft 510 kts 91°
2026-04-25 19:33 53.98548 -18.81683 37072 ft 510 kts 91°
2026-04-25 19:33 53.98673 -18.69628 37068 ft 510 kts 91°
2026-04-25 19:34 53.98786 -18.57584 37072 ft 509 kts 91°
2026-04-25 19:34 53.98887 -18.45554 37072 ft 509 kts 92°
2026-04-25 19:35 53.98976 -18.33527 37077 ft 509 kts 92°
2026-04-25 19:35 53.99053 -18.21483 37077 ft 509 kts 92°
2026-04-25 19:36 53.99118 -18.09455 37079 ft 509 kts 92°
2026-04-25 19:36 53.99171 -17.97454 37080 ft 508 kts 92°
2026-04-25 19:37 53.99212 -17.85433 37089 ft 508 kts 92°
2026-04-25 19:37 53.99241 -17.73423 37088 ft 508 kts 92°
2026-04-25 19:38 53.99257 -17.61492 37080 ft 508 kts 92°
2026-04-25 19:38 53.99263 -17.49411 37097 ft 507 kts 93°
2026-04-25 19:39 53.99256 -17.37508 37098 ft 507 kts 93°
2026-04-25 19:39 53.99237 -17.25523 37105 ft 507 kts 93°
2026-04-25 19:40 53.99206 -17.13548 37105 ft 507 kts 93°
2026-04-25 19:40 53.99164 -17.01571 37102 ft 507 kts 93°
2026-04-25 19:41 53.99109 -16.89588 37108 ft 507 kts 94°
2026-04-25 19:41 53.99066 -16.81573 37108 ft 507 kts 94°
2026-04-25 19:42 53.98964 -16.65623 37113 ft 507 kts 94°
2026-04-25 19:42 53.98874 -16.53636 37116 ft 507 kts 94°
2026-04-25 19:43 53.98772 -16.41669 37119 ft 507 kts 94°
2026-04-25 19:43 53.98658 -16.29695 37121 ft 507 kts 94°
2026-04-25 19:44 53.98532 -16.17720 37124 ft 507 kts 94°
2026-04-25 19:44 53.98394 -16.05744 37124 ft 507 kts 94°
2026-04-25 19:45 53.98245 -15.93855 37120 ft 507 kts 94°
2026-04-25 19:45 53.98084 -15.81883 37127 ft 507 kts 95°
2026-04-25 19:46 53.97910 -15.69893 37132 ft 507 kts 95°
2026-04-25 19:46 53.97724 -15.57914 37138 ft 508 kts 95°
2026-04-25 19:47 53.97527 -15.45921 37138 ft 508 kts 95°
2026-04-25 19:47 53.97317 -15.33941 37140 ft 508 kts 95°
2026-04-25 19:48 53.97096 -15.21941 37143 ft 508 kts 95°
2026-04-25 19:48 53.96866 -15.09952 37141 ft 508 kts 95°
2026-04-25 19:49 53.97187 -15.01920 37140 ft 513 kts 82°
2026-04-25 19:49 53.99012 -14.92326 37144 ft 518 kts 64°
2026-04-25 19:49 54.00914 -14.87117 37140 ft 519 kts 52°
2026-04-25 19:50 54.06212 -14.78883 37149 ft 517 kts 34°
2026-04-25 19:50 54.08868 -14.74796 37152 ft 515 kts 50°
2026-04-25 19:50 54.10976 -14.69873 37179 ft 514 kts 61°
2026-04-25 19:51 54.12519 -14.64393 37158 ft 512 kts 72°
2026-04-25 19:51 54.13458 -14.58562 37140 ft 509 kts 83°
2026-04-25 19:51 54.13776 -14.52592 37155 ft 505 kts 94°
2026-04-25 19:52 54.12975 -14.40786 37127 ft 500 kts 104°
2026-04-25 19:52 54.11608 -14.29168 37159 ft 499 kts 105°
2026-04-25 19:53 54.10189 -14.17589 37160 ft 500 kts 105°
2026-04-25 19:53 54.08813 -14.05994 37163 ft 500 kts 105°
2026-04-25 19:54 54.07456 -13.94381 37161 ft 500 kts 105°
2026-04-25 19:54 54.06094 -13.82784 37149 ft 500 kts 105°
2026-04-25 19:55 54.04728 -13.71264 37167 ft 499 kts 105°
2026-04-25 19:55 54.03341 -13.59681 37176 ft 499 kts 105°
2026-04-25 19:56 54.01933 -13.48032 37177 ft 499 kts 105°
2026-04-25 19:56 54.00534 -13.36551 37157 ft 499 kts 105°
2026-04-25 19:57 53.99114 -13.25001 37161 ft 499 kts 105°
2026-04-25 19:57 53.97682 -13.13455 37177 ft 499 kts 105°
2026-04-25 19:58 53.96242 -13.01931 37175 ft 499 kts 105°
2026-04-25 19:58 53.94788 -12.90398 37184 ft 499 kts 105°
2026-04-25 19:59 53.93324 -12.78881 37182 ft 499 kts 105°
2026-04-25 19:59 53.91850 -12.67379 37168 ft 499 kts 105°
2026-04-25 20:00 53.90363 -12.55872 37187 ft 499 kts 105°
2026-04-25 20:00 53.88867 -12.44381 37253 ft 499 kts 105°
2026-04-25 20:00 53.88114 -12.38640 37435 ft 499 kts 105°
2026-04-25 20:01 53.86603 -12.27175 37796 ft 498 kts 105°
2026-04-25 20:01 53.86099 -12.23375 37915 ft 499 kts 105°
2026-04-25 20:01 53.85079 -12.15710 38138 ft 499 kts 105°
2026-04-25 20:02 53.83800 -12.06154 38189 ft 501 kts 105°
2026-04-25 20:02 53.82256 -11.94697 38197 ft 498 kts 105°
2026-04-25 20:03 53.80705 -11.83270 38198 ft 498 kts 105°
2026-04-25 20:03 53.79143 -11.71866 38202 ft 498 kts 105°
2026-04-25 20:04 53.77569 -11.60458 38186 ft 498 kts 105°
2026-04-25 20:04 53.75986 -11.49071 38195 ft 498 kts 105°
2026-04-25 20:05 53.74389 -11.37669 38196 ft 498 kts 105°
2026-04-25 20:05 53.72783 -11.26288 38199 ft 498 kts 106°
2026-04-25 20:06 53.71165 -11.14903 38201 ft 498 kts 106°
2026-04-25 20:06 53.69537 -11.03541 38206 ft 498 kts 106°
2026-04-25 20:07 53.67899 -10.92188 38206 ft 498 kts 106°
2026-04-25 20:07 53.66249 -10.80832 38206 ft 498 kts 106°
2026-04-25 20:08 53.64589 -10.69497 38205 ft 498 kts 106°
2026-04-25 20:08 53.62918 -10.58164 38205 ft 498 kts 106°
2026-04-25 20:09 53.61238 -10.46853 38206 ft 498 kts 106°
2026-04-25 20:09 53.59556 -10.35613 38207 ft 498 kts 106°
2026-04-25 20:10 53.57851 -10.24294 38210 ft 499 kts 106°
2026-04-25 20:10 53.56138 -10.13002 38200 ft 498 kts 106°
2026-04-25 20:11 53.54414 -10.01712 38209 ft 499 kts 107°
2026-04-25 20:11 53.52676 -9.90417 38213 ft 499 kts 107°
2026-04-25 20:12 53.50930 -9.79140 38209 ft 499 kts 107°
2026-04-25 20:12 53.49471 -9.69775 38208 ft 499 kts 107°
2026-04-25 20:13 53.47405 -9.56617 38208 ft 499 kts 107°
2026-04-25 20:13 53.45636 -9.45435 38211 ft 499 kts 107°
2026-04-25 20:14 53.43847 -9.34200 38204 ft 499 kts 107°
2026-04-25 20:14 53.42049 -9.22977 38212 ft 498 kts 107°
2026-04-25 20:15 53.40242 -9.11774 38199 ft 498 kts 107°
2026-04-25 20:15 53.38424 -9.00581 38199 ft 498 kts 107°
2026-04-25 20:16 53.36596 -8.89399 38202 ft 498 kts 107°
2026-04-25 20:16 53.34768 -8.78291 38196 ft 498 kts 107°
2026-04-25 20:17 53.32921 -8.67140 38198 ft 498 kts 107°
2026-04-25 20:17 53.31061 -8.55985 38196 ft 498 kts 107°
2026-04-25 20:18 53.29192 -8.44845 38193 ft 498 kts 107°
2026-04-25 20:18 53.27314 -8.33720 38192 ft 498 kts 107°
2026-04-25 20:19 53.25438 -8.22682 38188 ft 497 kts 108°
2026-04-25 20:19 53.23540 -8.11583 38187 ft 497 kts 108°
2026-04-25 20:20 53.21631 -8.00492 38185 ft 497 kts 108°
2026-04-25 20:20 53.19712 -7.89410 38185 ft 497 kts 108°
2026-04-25 20:21 53.17797 -7.78418 38184 ft 497 kts 108°
2026-04-25 20:21 53.15858 -7.67360 38185 ft 497 kts 108°
2026-04-25 20:22 53.14241 -7.58186 38186 ft 496 kts 108°
2026-04-25 20:22 53.11956 -7.45310 38184 ft 496 kts 108°
2026-04-25 20:23 53.10006 -7.34388 38184 ft 496 kts 108°
2026-04-25 20:23 53.08030 -7.23392 38184 ft 496 kts 108°
2026-04-25 20:24 53.06047 -7.12420 38178 ft 496 kts 108°
2026-04-25 20:24 53.04053 -7.01457 38175 ft 495 kts 108°
2026-04-25 20:25 53.02049 -6.90502 38189 ft 495 kts 108°
2026-04-25 20:25 53.00051 -6.79642 38189 ft 495 kts 108°
2026-04-25 20:26 52.98027 -6.68706 38195 ft 495 kts 108°
2026-04-25 20:26 52.95996 -6.57795 38195 ft 495 kts 109°
2026-04-25 20:27 52.93953 -6.46890 38198 ft 495 kts 109°
2026-04-25 20:27 52.91917 -6.36078 38198 ft 495 kts 109°
2026-04-25 20:28 52.89858 -6.25214 38203 ft 495 kts 109°
2026-04-25 20:28 52.87789 -6.14353 38204 ft 494 kts 109°
2026-04-25 20:29 52.85711 -6.03509 38205 ft 494 kts 109°
2026-04-25 20:29 52.83620 -5.92662 38206 ft 494 kts 109°
2026-04-25 20:30 52.81538 -5.81919 38214 ft 494 kts 109°
2026-04-25 20:30 52.79428 -5.71097 38260 ft 494 kts 109°
2026-04-25 20:31 52.78373 -5.65703 38453 ft 494 kts 109°
2026-04-25 20:31 52.77312 -5.60299 38654 ft 493 kts 109°
2026-04-25 20:31 52.76252 -5.54913 38846 ft 493 kts 109°
2026-04-25 20:31 52.75063 -5.49624 38984 ft 491 kts 115°
2026-04-25 20:32 52.73596 -5.44537 39123 ft 490 kts 118°
2026-04-25 20:32 52.72074 -5.39493 39207 ft 492 kts 118°
2026-04-25 20:32 52.68974 -5.29502 39218 ft 492 kts 119°
2026-04-25 20:33 52.65802 -5.19537 39215 ft 491 kts 120°
2026-04-25 20:33 52.63147 -5.11276 39217 ft 490 kts 119°
2026-04-25 20:34 52.59413 -4.99700 39220 ft 490 kts 120°
2026-04-25 20:34 52.56212 -4.89806 39219 ft 489 kts 120°
2026-04-25 20:35 52.53011 -4.79948 39219 ft 489 kts 120°
2026-04-25 20:35 52.49819 -4.70158 39216 ft 489 kts 120°
2026-04-25 20:36 52.46591 -4.60298 39220 ft 493 kts 120°
2026-04-25 20:36 52.43331 -4.50381 39207 ft 494 kts 120°
2026-04-25 20:37 52.40060 -4.40468 39216 ft 495 kts 120°
2026-04-25 20:37 52.36775 -4.30552 39217 ft 496 kts 120°
2026-04-25 20:38 52.33501 -4.20707 39216 ft 496 kts 120°
2026-04-25 20:38 52.30194 -4.10806 39217 ft 496 kts 120°
2026-04-25 20:39 52.26882 -4.00929 39218 ft 496 kts 120°
2026-04-25 20:39 52.24121 -3.92725 39213 ft 496 kts 120°
2026-04-25 20:40 52.20236 -3.81225 39207 ft 495 kts 120°
2026-04-25 20:40 52.16920 -3.71454 39223 ft 496 kts 120°
2026-04-25 20:41 52.13577 -3.61640 39207 ft 496 kts 120°
2026-04-25 20:41 52.10225 -3.51839 39210 ft 496 kts 121°
2026-04-25 20:42 52.06861 -3.42041 39219 ft 496 kts 121°
2026-04-25 20:42 52.03496 -3.32277 39204 ft 495 kts 121°
2026-04-25 20:43 52.00151 -3.22611 39229 ft 494 kts 121°
2026-04-25 20:43 51.96773 -3.12889 39243 ft 495 kts 121°
2026-04-25 20:44 51.93384 -3.03170 39259 ft 496 kts 121°
2026-04-25 20:44 51.89984 -2.93455 39272 ft 496 kts 121°
2026-04-25 20:45 51.86578 -2.83764 39279 ft 495 kts 121°
2026-04-25 20:45 51.84876 -2.78933 39176 ft 494 kts 121°
2026-04-25 20:45 51.83171 -2.74106 39124 ft 494 kts 121°
2026-04-25 20:46 51.79778 -2.64524 38948 ft 494 kts 121°
2026-04-25 20:46 51.76358 -2.54906 38651 ft 495 kts 121°
2026-04-25 20:47 51.74639 -2.50083 38397 ft 496 kts 121°
2026-04-25 20:47 51.72911 -2.45248 38104 ft 497 kts 121°
2026-04-25 20:47 51.71182 -2.40415 37825 ft 498 kts 121°
2026-04-25 20:47 51.69449 -2.35583 37630 ft 498 kts 121°
2026-04-25 20:48 51.67715 -2.30755 37412 ft 499 kts 121°
2026-04-25 20:48 51.65974 -2.25918 37239 ft 499 kts 121°
2026-04-25 20:48 51.62504 -2.16303 37209 ft 501 kts 121°
2026-04-25 20:49 51.58998 -2.06627 37208 ft 500 kts 121°
2026-04-25 20:49 51.55484 -1.96964 37198 ft 500 kts 121°
2026-04-25 20:50 51.51962 -1.87318 37205 ft 501 kts 121°
2026-04-25 20:50 51.48435 -1.77693 37221 ft 501 kts 121°
2026-04-25 20:51 51.44918 -1.68131 37206 ft 501 kts 121°
2026-04-25 20:51 51.41371 -1.58527 37207 ft 501 kts 121°
2026-04-25 20:52 51.38419 -1.50560 37224 ft 501 kts 121°
2026-04-25 20:52 51.34258 -1.39370 37213 ft 500 kts 122°
2026-04-25 20:53 51.30689 -1.29813 37220 ft 500 kts 122°
2026-04-25 20:53 51.27138 -1.20339 37214 ft 501 kts 122°
2026-04-25 20:54 51.23554 -1.10814 37214 ft 501 kts 122°
2026-04-25 20:54 51.19963 -1.01301 37208 ft 501 kts 122°
2026-04-25 20:55 51.16362 -0.91800 37239 ft 501 kts 122°
2026-04-25 20:55 51.12751 -0.82308 37241 ft 501 kts 122°
2026-04-25 20:56 51.09137 -0.72844 37222 ft 501 kts 122°
2026-04-25 20:56 51.05541 -0.63458 37236 ft 500 kts 122°
2026-04-25 20:57 51.01909 -0.54016 37169 ft 501 kts 122°
2026-04-25 20:57 50.98271 -0.44593 37016 ft 501 kts 122°
2026-04-25 20:58 50.94621 -0.35172 36830 ft 501 kts 122°
2026-04-25 20:58 50.92793 -0.30465 36704 ft 502 kts 122°
2026-04-25 20:58 50.90981 -0.25811 36585 ft 502 kts 122°
2026-04-25 20:59 50.89146 -0.21104 36398 ft 502 kts 122°
2026-04-25 20:59 50.87312 -0.16408 36171 ft 503 kts 122°
2026-04-25 20:59 50.85467 -0.11693 35917 ft 504 kts 122°
2026-04-25 20:59 50.83620 -0.06982 35666 ft 504 kts 122°
2026-04-25 21:00 50.81768 -0.02267 35417 ft 505 kts 122°
2026-04-25 21:00 50.81140 -0.00671 35339 ft 506 kts 122°
2026-04-25 21:00 50.75931 0.11598 34792 ft 505 kts 133°
2026-04-25 21:01 50.73440 0.15475 34548 ft 504 kts 140°
2026-04-25 21:01 50.70784 0.19083 34298 ft 504 kts 141°
2026-04-25 21:01 50.68107 0.22558 34067 ft 505 kts 142°
2026-04-25 21:01 50.65373 0.26027 33780 ft 506 kts 142°
2026-04-25 21:02 50.62619 0.29495 33478 ft 507 kts 142°
2026-04-25 21:02 50.59872 0.32954 33105 ft 504 kts 142°
2026-04-25 21:02 50.57122 0.36425 32792 ft 510 kts 142°
2026-04-25 21:02 50.54359 0.39924 32296 ft 511 kts 142°
2026-04-25 21:03 50.51582 0.43439 31553 ft 515 kts 142°
2026-04-25 21:03 50.48775 0.46990 30698 ft 519 kts 142°
2026-04-25 21:03 50.45960 0.50549 29898 ft 521 kts 142°
2026-04-25 21:03 50.43152 0.54097 28972 ft 516 kts 142°
2026-04-25 21:04 50.40375 0.57600 28013 ft 511 kts 142°
2026-04-25 21:04 50.37662 0.61015 27125 ft 500 kts 142°
2026-04-25 21:04 50.34991 0.64374 26515 ft 491 kts 142°
2026-04-25 21:04 50.32308 0.67742 26319 ft 496 kts 142°
2026-04-25 21:05 50.29631 0.71095 26242 ft 491 kts 142°
2026-04-25 21:05 50.26971 0.74424 26232 ft 489 kts 142°
2026-04-25 21:05 50.24312 0.77745 26232 ft 489 kts 142°
2026-04-25 21:05 50.21654 0.81060 26232 ft 489 kts 142°
2026-04-25 21:06 50.19001 0.84366 26226 ft 489 kts 142°
2026-04-25 21:06 50.16343 0.87676 26234 ft 488 kts 142°
2026-04-25 21:06 50.13689 0.90972 26021 ft 485 kts 142°
2026-04-25 21:06 50.11956 0.93121 25832 ft 478 kts 142°
2026-04-25 21:07 50.08587 0.97293 25466 ft 456 kts 142°
2026-04-25 21:07 50.06122 1.00248 25205 ft 441 kts 147°
2026-04-25 21:07 50.03499 1.02550 24950 ft 426 kts 155°
2026-04-25 21:07 50.00856 1.04550 24702 ft 420 kts 156°
2026-04-25 21:08 49.98241 1.06499 24343 ft 416 kts 155°
2026-04-25 21:08 49.95639 1.08441 23852 ft 415 kts 155°
2026-04-25 21:08 49.93047 1.10380 23296 ft 411 kts 155°
2026-04-25 21:08 49.90482 1.12301 22658 ft 408 kts 155°
2026-04-25 21:09 49.85459 1.16062 21493 ft 400 kts 155°
2026-04-25 21:09 49.82954 1.17934 20946 ft 399 kts 155°
2026-04-25 21:09 49.80451 1.19804 20403 ft 400 kts 155°
2026-04-25 21:10 49.77948 1.21672 19864 ft 400 kts 155°
2026-04-25 21:10 49.75438 1.23542 19331 ft 400 kts 155°
2026-04-25 21:10 49.72933 1.25408 18804 ft 400 kts 155°
2026-04-25 21:10 49.70427 1.27271 18257 ft 399 kts 155°
2026-04-25 21:11 49.67931 1.29126 17669 ft 396 kts 155°
2026-04-25 21:11 49.65489 1.30939 17086 ft 381 kts 155°
2026-04-25 21:11 49.63153 1.32672 16527 ft 365 kts 155°
2026-04-25 21:11 49.60937 1.34313 15961 ft 352 kts 155°
2026-04-25 21:12 49.58762 1.35922 15425 ft 342 kts 155°
2026-04-25 21:12 49.56646 1.37486 14883 ft 333 kts 155°
2026-04-25 21:12 49.54586 1.39007 14374 ft 326 kts 155°
2026-04-25 21:12 49.53232 1.40005 14015 ft 326 kts 155°
2026-04-25 21:13 49.50505 1.42015 13536 ft 320 kts 155°
2026-04-25 21:13 49.48518 1.43477 13301 ft 313 kts 155°
2026-04-25 21:13 49.46569 1.44912 13048 ft 309 kts 155°
2026-04-25 21:13 49.44619 1.46345 12921 ft 311 kts 155°
2026-04-25 21:14 49.42679 1.47769 12700 ft 309 kts 155°
2026-04-25 21:14 49.40739 1.49192 12513 ft 309 kts 155°
2026-04-25 21:14 49.38831 1.50591 12372 ft 307 kts 155°
2026-04-25 21:14 49.36905 1.52002 12255 ft 308 kts 155°
2026-04-25 21:15 49.34978 1.53412 12068 ft 306 kts 155°
2026-04-25 21:15 49.33056 1.54818 11864 ft 305 kts 155°
2026-04-25 21:15 49.31155 1.56260 11599 ft 304 kts 153°
2026-04-25 21:15 49.29288 1.57763 11300 ft 303 kts 152°
2026-04-25 21:16 49.27451 1.59338 11027 ft 301 kts 150°
2026-04-25 21:16 49.25713 1.61101 10702 ft 300 kts 137°
2026-04-25 21:16 49.24492 1.63657 10425 ft 297 kts 115°
2026-04-25 21:16 49.23536 1.66403 10133 ft 297 kts 123°
2026-04-25 21:17 49.22261 1.68876 9826 ft 295 kts 130°
2026-04-25 21:17 49.20882 1.71248 9501 ft 294 kts 131°
2026-04-25 21:17 49.19538 1.73530 9197 ft 292 kts 131°
2026-04-25 21:17 49.18180 1.75830 8895 ft 290 kts 131°
2026-04-25 21:18 49.16830 1.78114 8575 ft 289 kts 131°
2026-04-25 21:18 49.15485 1.80386 8266 ft 288 kts 131°
2026-04-25 21:18 49.14146 1.82646 7973 ft 286 kts 131°
2026-04-25 21:18 49.12815 1.84889 7669 ft 284 kts 131°
2026-04-25 21:19 49.11491 1.87118 7414 ft 281 kts 131°
2026-04-25 21:19 49.10196 1.89297 7287 ft 273 kts 131°
2026-04-25 21:19 49.08941 1.91404 7164 ft 265 kts 131°
2026-04-25 21:19 49.07717 1.93453 7040 ft 257 kts 131°
2026-04-25 21:20 49.06545 1.95414 6935 ft 251 kts 131°
2026-04-25 21:20 49.06150 1.96076 6866 ft 250 kts 131°
2026-04-25 21:20 49.04234 1.99323 6495 ft 245 kts 127°
2026-04-25 21:20 49.03265 2.01418 6379 ft 238 kts 123°
2026-04-25 21:21 49.02378 2.03507 6264 ft 231 kts 121°
2026-04-25 21:21 49.01516 2.05542 6095 ft 227 kts 122°
2026-04-25 21:21 49.00670 2.07594 5719 ft 231 kts 117°
2026-04-25 21:21 49.00252 2.09974 5249 ft 238 kts 92°
2026-04-25 21:22 49.00287 2.12531 4760 ft 246 kts 83°
2026-04-25 21:22 49.00451 2.15163 4274 ft 252 kts 83°
2026-04-25 21:22 49.00601 2.17745 4024 ft 240 kts 84°
2026-04-25 21:22 49.00734 2.20161 3983 ft 217 kts 84°
2026-04-25 21:23 49.00850 2.22330 4014 ft 195 kts 82°
2026-04-25 21:23 49.00958 2.24339 3990 ft 189 kts 83°
2026-04-25 21:23 49.01064 2.26331 3814 ft 189 kts 83°
2026-04-25 21:23 49.01170 2.28316 3556 ft 187 kts 83°
2026-04-25 21:24 49.01277 2.30297 3283 ft 187 kts 83°
2026-04-25 21:24 49.01382 2.32258 3022 ft 185 kts 83°
2026-04-25 21:24 49.01486 2.34192 2780 ft 183 kts 84°
2026-04-25 21:24 49.01589 2.36114 2525 ft 182 kts 84°
2026-04-25 21:25 49.01691 2.38008 2285 ft 180 kts 83°
2026-04-25 21:25 49.01790 2.39845 2042 ft 168 kts 84°
2026-04-25 21:25 49.01880 2.41530 1814 ft 152 kts 83°
2026-04-25 21:25 49.01958 2.43073 1591 ft 140 kts 83°
2026-04-25 21:26 49.02034 2.44504 1397 ft 132 kts 82°
2026-04-25 21:26 49.02130 2.45896 1285 ft 135 kts 85°
2026-04-25 21:26 49.02178 2.47346 1062 ft 137 kts 82°
2026-04-25 21:26 49.02270 2.48762 863 ft 134 kts 81°
2026-04-25 21:27 49.02352 2.50152 662 ft 134 kts 83°
2026-04-25 21:27 49.02421 2.51546 483 ft 131 kts 82°
2026-04-25 21:27 49.02495 2.52938 372 ft 132 kts 82°
2026-04-25 21:27 49.02563 2.54097 358 ft 76 kts 86°
2026-04-25 21:28 49.02556 2.54558 356 ft 25 kts 105°
2026-04-25 21:28 49.02506 2.54795 366 ft 23 kts 107°
2026-04-25 21:28 49.02464 2.55018 367 ft 20 kts 105°
2026-04-25 21:28 49.02445 2.55189 362 ft 15 kts 86°
2026-04-25 21:29 49.02454 2.55350 364 ft 16 kts 85°
2026-04-25 21:29 49.02462 2.55507 364 ft 12 kts 90°
2026-04-25 21:29 49.02417 2.55605 366 ft 12 kts 158°
2026-04-25 21:29 49.02329 2.55616 361 ft 13 kts 177°
2026-04-25 21:30 49.02231 2.55635 363 ft 15 kts 172°
2026-04-25 21:30 49.02152 2.55646 366 ft 0 kts 176°
2026-04-25 21:30 49.02149 2.55646 366 ft 0 kts 176°
2026-04-25 21:30 49.02145 2.55646 361 ft 2 kts 176°
2026-04-25 21:31 49.02139 2.55647 360 ft 0 kts 176°
2026-04-25 21:31 49.02136 2.55647 360 ft 1 kts 176°
2026-04-25 21:31 49.02120 2.55649 365 ft 4 kts 176°
2026-04-25 21:31 49.02063 2.55654 366 ft 12 kts 176°
2026-04-25 21:32 49.01959 2.55670 358 ft 16 kts 174°
2026-04-25 21:32 49.01898 2.55632 367 ft 8 kts 236°
2026-04-25 21:32 49.01886 2.55534 364 ft 13 kts 263°
2026-04-25 21:32 49.01876 2.55364 365 ft 17 kts 265°
2026-04-25 21:33 49.01866 2.55174 363 ft 18 kts 266°
2026-04-25 21:33 49.01856 2.54984 362 ft 14 kts 264°
2026-04-25 21:33 49.01828 2.54870 364 ft 10 kts 214°
2026-04-25 21:33 49.01754 2.54866 360 ft 11 kts 175°
2026-04-25 21:34 49.01670 2.54876 358 ft 13 kts 175°
2026-04-25 21:34 49.01576 2.54888 367 ft 14 kts 175°
2026-04-25 21:34 49.01471 2.54901 367 ft 16 kts 175°
2026-04-25 21:34 49.01359 2.54935 365 ft 17 kts 163°
2026-04-25 21:35 49.01241 2.54983 367 ft 18 kts 165°
2026-04-25 21:35 49.01116 2.55038 366 ft 19 kts 163°
2026-04-25 21:35 49.00984 2.55097 365 ft 20 kts 164°
2026-04-25 21:35 49.00844 2.55157 363 ft 21 kts 164°
2026-04-25 21:36 49.00712 2.55216 365 ft 19 kts 163°
2026-04-25 21:36 49.00580 2.55274 365 ft 20 kts 164°
2026-04-25 21:36 49.00441 2.55333 366 ft 21 kts 165°
2026-04-25 21:36 49.00307 2.55389 365 ft 17 kts 163°
2026-04-25 21:37 49.00188 2.55442 366 ft 19 kts 163°
2026-04-25 21:37 49.00146 2.55462 360 ft 19 kts 163°
2026-04-25 21:37 48.99932 2.55556 361 ft 17 kts 160°
2026-04-25 21:37 48.99853 2.55665 364 ft 16 kts 120°
2026-04-25 21:38 48.99816 2.55828 361 ft 17 kts 105°
2026-04-25 21:38 48.99798 2.56008 364 ft 18 kts 87°
2026-04-25 21:38 48.99807 2.56178 361 ft 16 kts 85°
2026-04-25 21:38 48.99818 2.56352 362 ft 17 kts 84°
2026-04-25 21:39 48.99824 2.56451 358 ft 11 kts 85°
2026-04-25 21:39 48.99832 2.56613 358 ft 12 kts 85°
2026-04-25 21:39 48.99839 2.56744 358 ft 13 kts 86°
2026-04-25 21:39 48.99843 2.56826 362 ft 8 kts 86°
2026-04-25 21:40 48.99845 2.56877 366 ft 3 kts 86°
2026-04-25 21:40 48.99847 2.56905 364 ft 5 kts 85°
2026-04-25 21:40 48.99863 2.56977 367 ft 6 kts 50°
2026-04-25 21:40 48.99887 2.56997 362 ft 6 kts 20°
2026-04-25 21:41 48.99893 2.56999 365 ft 0 kts 13°
2026-04-25 21:42 48.99904 2.56999 364 ft 5 kts
2026-04-25 21:42 48.99952 2.56997 364 ft 9 kts 356°
2026-04-25 21:43 49.00023 2.56990 358 ft 10 kts 356°
2026-04-25 21:43 49.00084 2.56982 358 ft 9 kts 353°
2026-04-25 21:43 49.00123 2.56936 362 ft 7 kts 292°
2026-04-25 21:43 49.00125 2.56858 361 ft 8 kts 267°
2026-04-25 21:44 49.00123 2.56779 358 ft 2 kts 275°
2026-04-25 21:44 49.00133 2.56763 366 ft 3 kts 315°
2026-04-25 21:44 49.00178 2.56742 365 ft 3 kts 351°
2026-04-25 21:45 49.00186 2.56741 365 ft 0 kts 354°